GFSSW_500_temp_000.txt.gz
Temp
-9 -9 -9 -9 -9 -9 -9 -9 -9 -9 -9 -9 -9 -9 -9 -9 -9 -9 -9 -9 -9 -9 -9 -9 -9 -9 -9 -9 -9 -9 -9 -10 -10 -10 -10 -10 -10 -10 -10 -10 -10 -10 -10 -10 -10
-9 -9 -9 -9 -9 -9 -9 -9 -9 -9 -9 -9 -9 -9 -9 -9 -9 -9 -9 -9 -9 -9 -9 -9 -9 -9 -9 -9 -10 -9 -9 -10 -10 -10 -10 -10 -10 -10 -10 -10 -11 -10 -10 -10 -10
-9 -9 -9 -9 -9 -9 -9 -9 -9 -9 -9 -9 -9 -9 -9 -9 -9 -9 -9 -9 -9 -9 -9 -10 -10 -10 -10 -10 -10 -10 -10 -10 -10 -10 -10 -10 -11 -11 -10 -10 -12 -11 -11 -10 -11
-9 -9 -9 -9 -9 -9 -9 -9 -9 -9 -9 -9 -9 -9 -9 -9 -9 -9 -9 -9 -9 -10 -10 -10 -10 -10 -10 -10 -10 -10 -10 -10 -10 -11 -11 -11 -11 -11 -10 -11 -12 -12 -11 -11 -11
-9 -9 -9 -9 -9 -9 -9 -9 -9 -9 -9 -9 -9 -9 -9 -9 -10 -10 -10 -10 -10 -10 -10 -10 -10 -10 -10 -10 -10 -10 -10 -10 -11 -11 -11 -11 -11 -11 -10 -12 -12 -12 -11 -11 -10
-10 -10 -9 -9 -9 -9 -9 -9 -9 -9 -9 -9 -9 -9 -10 -10 -10 -10 -10 -10 -10 -10 -10 -10 -10 -10 -10 -10 -10 -10 -10 -10 -10 -11 -11 -12 -12 -10 -10 -12 -11 -12 -11 -11 -10
-10 -10 -10 -10 -10 -10 -10 -10 -10 -10 -10 -10 -10 -10 -10 -10 -10 -10 -10 -10 -10 -10 -10 -10 -10 -10 -10 -10 -10 -10 -10 -10 -11 -11 -11 -11 -11 -10 -11 -11 -11 -11 -11 -11 -10
-10 -10 -10 -10 -10 -10 -10 -10 -10 -10 -10 -10 -10 -10 -10 -11 -11 -11 -11 -11 -11 -11 -11 -11 -10 -10 -10 -10 -10 -10 -10 -10 -11 -11 -11 -11 -10 -11 -11 -11 -11 -11 -10 -10 -10
-11 -10 -10 -10 -10 -10 -10 -10 -10 -11 -11 -11 -11 -11 -11 -11 -11 -11 -11 -11 -11 -11 -11 -11 -11 -11 -11 -11 -10 -11 -11 -11 -10 -11 -10 -10 -10 -10 -11 -10 -10 -10 -10 -11 -11
-11 -11 -11 -11 -11 -11 -11 -11 -11 -11 -11 -11 -11 -11 -11 -11 -11 -11 -11 -11 -11 -11 -11 -11 -11 -11 -11 -11 -11 -11 -10 -10 -10 -11 -10 -10 -9 -10 -10 -10 -10 -10 -11 -11 -11
-11 -11 -11 -11 -11 -11 -11 -11 -11 -11 -11 -11 -11 -11 -11 -11 -11 -11 -11 -11 -11 -11 -11 -11 -11 -11 -12 -12 -12 -11 -11 -10 -11 -11 -10 -9 -8 -9 -9 -9 -9 -10 -10 -10 -10
-12 -11 -11 -11 -11 -11 -11 -11 -11 -11 -11 -11 -11 -11 -11 -11 -11 -11 -11 -11 -11 -11 -11 -11 -11 -12 -12 -12 -12 -12 -11 -11 -10 -11 -10 -9 -8 -8 -9 -9 -10 -10 -10 -10 -10
-12 -12 -12 -12 -12 -12 -12 -12 -12 -11 -10 -10 -11 -11 -11 -11 -11 -12 -12 -12 -11 -11 -11 -11 -11 -12 -12 -12 -12 -12 -12 -11 -10 -10 -10 -9 -7 -8 -8 -9 -10 -10 -10 -10 -10
-12 -12 -12 -12 -12 -12 -13 -13 -12 -12 -10 -10 -11 -11 -12 -12 -12 -12 -12 -12 -12 -13 -13 -12 -12 -12 -13 -12 -13 -12 -13 -12 -12 -11 -10 -9 -6 -7 -8 -9 -9 -10 -10 -10 -11
-13 -13 -12 -12 -12 -13 -13 -13 -13 -13 -11 -11 -11 -12 -12 -12 -12 -13 -12 -13 -13 -13 -13 -13 -13 -13 -12 -13 -13 -12 -12 -13 -13 -12 -12 -10 -10 -7 -9 -9 -9 -10 -10 -10 -11
-13 -13 -13 -13 -13 -13 -13 -13 -14 -14 -11 -12 -12 -13 -13 -13 -13 -13 -13 -13 -13 -13 -13 -13 -13 -12 -13 -13 -13 -13 -13 -13 -13 -13 -12 -11 -12 -5 -9 -9 -10 -11 -11 -11 -11
-13 -14 -14 -14 -14 -14 -14 -14 -14 -13 -12 -12 -13 -13 -14 -14 -14 -14 -14 -14 -14 -13 -13 -13 -13 -13 -13 -14 -14 -15 -15 -14 -14 -14 -13 -13 -13 -9 -10 -11 -10 -11 -12 -12 -12
-15 -15 -14 -14 -15 -15 -14 -15 -13 -12 -12 -13 -15 -15 -14 -15 -15 -15 -15 -15 -15 -15 -14 -13 -12 -14 -14 -15 -15 -15 -16 -15 -15 -15 -14 -14 -12 -10 -11 -11 -11 -12 -13 -13 -14
-14 -14 -14 -16 -15 -15 -15 -15 -13 -13 -14 -15 -15 -15 -15 -15 -17 -16 -16 -15 -15 -16 -16 -16 -13 -14 -14 -15 -15 -15 -15 -17 -17 -17 -17 -15 -14 -13 -12 -12 -13 -13 -14 -15 -15
-15 -15 -15 -17 -17 -17 -17 -14 -14 -14 -15 -15 -15 -16 -15 -16 -16 -17 -17 -15 -15 -15 -16 -16 -16 -14 -15 -15 -15 -16 -17 -16 -17 -18 -18 -17 -16 -15 -13 -13 -14 -15 -16 -16 -16
-17 -16 -16 -17 -18 -17 -17 -16 -17 -17 -17 -17 -17 -18 -17 -16 -18 -18 -19 -18 -16 -17 -17 -17 -18 -15 -16 -14 -15 -16 -17 -17 -19 -20 -20 -19 -19 -17 -15 -14 -15 -16 -16 -16 -16
-17 -17 -17 -17 -18 -18 -17 -18 -18 -17 -18 -18 -18 -18 -19 -19 -19 -19 -18 -19 -18 -18 -18 -18 -18 -19 -18 -17 -17 -17 -18 -19 -19 -19 -20 -20 -19 -18 -18 -17 -17 -16 -16 -16 -15
-18 -18 -18 -18 -18 -19 -19 -19 -19 -19 -19 -19 -19 -19 -19 -19 -19 -19 -19 -19 -19 -19 -18 -19 -19 -19 -19 -19 -18 -19 -20 -20 -20 -20 -20 -20 -19 -19 -20 -20 -18 -17 -17 -16 -16
-20 -20 -19 -20 -20 -20 -20 -20 -20 -19 -19 -20 -20 -20 -20 -20 -20 -21 -20 -20 -20 -20 -19 -19 -21 -20 -20 -20 -20 -20 -21 -21 -20 -20 -20 -20 -20 -20 -20 -20 -20 -19 -19 -18 -18
-20 -20 -20 -20 -20 -21 -21 -21 -20 -20 -21 -21 -21 -21 -21 -21 -21 -21 -22 -22 -21 -21 -21 -21 -22 -22 -21 -21 -22 -22 -21 -21 -21 -21 -22 -21 -21 -22 -21 -21 -22 -21 -20 -20 -19
-20 -21 -21 -21 -22 -22 -22 -22 -22 -21 -23 -22 -23 -22 -22 -22 -22 -22 -22 -22 -22 -22 -22 -22 -22 -22 -22 -22 -23 -23 -22 -22 -22 -22 -23 -22 -22 -22 -22 -22 -22 -21 -21 -21 -20
-22 -22 -22 -22 -22 -23 -22 -23 -23 -23 -23 -23 -23 -23 -23 -23 -23 -23 -23 -23 -23 -23 -23 -23 -23 -23 -23 -23 -24 -23 -22 -22 -23 -23 -23 -23 -23 -23 -23 -24 -23 -22 -21 -21 -21

GFSSW_500_temp_003.txt.gz
Temp
-9 -9 -9 -9 -9 -9 -9 -9 -9 -9 -9 -9 -9 -9 -9 -9 -9 -9 -9 -9 -9 -9 -9 -9 -9 -9 -9 -9 -9 -9 -9 -10 -10 -10 -10 -10 -10 -10 -10 -10 -11 -11 -11 -10 -10
-10 -10 -10 -9 -9 -9 -9 -9 -9 -9 -9 -9 -9 -9 -9 -9 -9 -9 -9 -9 -9 -9 -9 -10 -10 -10 -10 -10 -10 -10 -10 -10 -10 -10 -10 -10 -10 -11 -10 -11 -12 -11 -11 -11 -10
-10 -10 -10 -10 -10 -10 -10 -9 -9 -9 -9 -9 -9 -9 -9 -9 -9 -9 -9 -9 -9 -10 -10 -10 -10 -10 -10 -10 -10 -10 -10 -10 -10 -11 -10 -10 -11 -11 -11 -11 -12 -12 -11 -11 -11
-10 -10 -10 -10 -10 -10 -9 -9 -9 -9 -9 -9 -9 -9 -9 -9 -10 -10 -10 -10 -10 -10 -10 -10 -10 -10 -10 -10 -10 -10 -10 -10 -10 -11 -11 -11 -11 -11 -11 -11 -12 -11 -11 -11 -11
-10 -10 -10 -10 -10 -9 -9 -9 -9 -9 -9 -9 -9 -9 -9 -9 -10 -10 -10 -10 -10 -10 -10 -10 -10 -10 -10 -10 -10 -10 -10 -10 -10 -10 -11 -11 -11 -11 -10 -12 -11 -11 -11 -11 -10
-10 -10 -10 -10 -10 -9 -9 -9 -9 -9 -10 -10 -10 -10 -10 -10 -10 -10 -10 -10 -10 -10 -11 -11 -10 -10 -10 -10 -10 -10 -10 -10 -10 -10 -11 -11 -11 -10 -11 -11 -11 -11 -11 -11 -10
-10 -10 -10 -10 -10 -10 -10 -10 -10 -10 -10 -10 -10 -10 -10 -10 -10 -10 -11 -11 -11 -11 -11 -11 -11 -11 -10 -11 -10 -10 -11 -10 -11 -11 -11 -11 -10 -10 -11 -11 -11 -11 -11 -11 -11
-11 -10 -10 -10 -10 -10 -10 -10 -10 -10 -10 -10 -10 -10 -10 -11 -11 -11 -11 -11 -11 -11 -11 -11 -11 -11 -11 -11 -10 -10 -10 -10 -11 -11 -11 -10 -9 -10 -11 -10 -10 -10 -11 -11 -11
-11 -11 -11 -11 -11 -11 -11 -10 -10 -10 -10 -10 -10 -10 -11 -11 -11 -11 -11 -11 -11 -11 -11 -11 -11 -11 -11 -11 -10 -11 -10 -10 -10 -10 -10 -9 -9 -10 -10 -10 -10 -10 -10 -11 -11
-11 -11 -11 -11 -11 -11 -11 -11 -11 -11 -11 -11 -11 -11 -11 -11 -11 -11 -11 -11 -11 -11 -11 -11 -11 -11 -11 -11 -11 -11 -10 -10 -10 -10 -10 -9 -9 -9 -10 -10 -10 -10 -10 -11 -11
-12 -11 -11 -11 -11 -11 -11 -11 -11 -11 -11 -11 -11 -11 -11 -11 -11 -11 -11 -11 -11 -11 -11 -11 -11 -11 -12 -12 -11 -10 -10 -10 -11 -11 -9 -9 -8 -9 -9 -9 -10 -10 -10 -10 -11
-12 -12 -12 -12 -12 -12 -11 -11 -11 -11 -10 -11 -11 -11 -11 -11 -11 -12 -12 -11 -11 -11 -11 -11 -11 -12 -11 -11 -11 -11 -11 -11 -10 -10 -9 -9 -8 -9 -9 -10 -10 -10 -11 -11 -11
-12 -12 -12 -12 -12 -12 -12 -12 -11 -11 -10 -10 -11 -11 -12 -12 -12 -12 -12 -12 -12 -12 -12 -11 -11 -12 -11 -12 -12 -12 -12 -11 -10 -10 -10 -8 -8 -8 -9 -10 -10 -11 -11 -11 -11
-13 -12 -12 -12 -12 -12 -12 -12 -12 -12 -11 -10 -11 -11 -12 -12 -12 -12 -12 -13 -13 -13 -14 -13 -13 -13 -13 -13 -13 -12 -13 -12 -12 -11 -10 -9 -7 -8 -8 -9 -10 -10 -11 -11 -11
-13 -13 -13 -13 -13 -13 -13 -12 -12 -12 -11 -11 -11 -12 -12 -12 -12 -13 -14 -14 -14 -14 -13 -13 -14 -14 -14 -14 -13 -13 -13 -13 -12 -12 -11 -10 -10 -8 -9 -10 -11 -12 -13 -13 -12
-14 -13 -13 -14 -13 -13 -13 -13 -13 -13 -11 -12 -13 -13 -13 -13 -13 -13 -14 -14 -14 -14 -14 -13 -14 -14 -15 -15 -15 -14 -14 -14 -13 -13 -12 -12 -12 -9 -9 -11 -12 -14 -16 -15 -15
-14 -14 -14 -14 -14 -14 -14 -14 -14 -13 -13 -13 -13 -14 -14 -15 -15 -15 -15 -15 -15 -15 -14 -14 -14 -13 -15 -15 -16 -16 -16 -15 -15 -15 -13 -13 -12 -10 -11 -12 -14 -14 -14 -14 -14
-14 -14 -14 -15 -15 -15 -15 -15 -14 -12 -14 -15 -15 -15 -15 -15 -16 -16 -16 -16 -16 -16 -16 -15 -13 -14 -15 -16 -16 -16 -16 -16 -17 -16 -15 -15 -14 -10 -11 -12 -14 -13 -13 -14 -14
-14 -15 -14 -15 -15 -15 -15 -14 -13 -14 -14 -15 -16 -16 -16 -16 -16 -16 -16 -16 -16 -17 -17 -17 -14 -16 -16 -16 -17 -16 -17 -18 -18 -18 -18 -15 -14 -13 -12 -14 -14 -15 -15 -15 -15
-14 -14 -15 -16 -17 -16 -16 -15 -15 -15 -16 -16 -16 -17 -16 -15 -16 -16 -16 -16 -16 -17 -18 -18 -18 -15 -16 -17 -17 -18 -18 -18 -18 -19 -19 -19 -17 -16 -14 -14 -15 -16 -15 -15 -15
-15 -17 -17 -19 -18 -18 -17 -16 -17 -16 -17 -17 -17 -17 -17 -17 -17 -18 -18 -17 -17 -18 -19 -19 -19 -17 -18 -17 -18 -18 -18 -18 -19 -19 -19 -20 -19 -18 -16 -16 -15 -15 -15 -15 -16
-19 -19 -18 -19 -18 -18 -17 -18 -18 -17 -17 -18 -18 -18 -18 -18 -19 -18 -18 -19 -18 -19 -19 -19 -20 -20 -18 -18 -19 -19 -18 -19 -20 -20 -20 -21 -21 -21 -21 -19 -18 -17 -16 -16 -16
-18 -18 -18 -18 -18 -18 -18 -19 -19 -18 -18 -19 -19 -19 -19 -19 -20 -19 -19 -19 -20 -20 -20 -20 -21 -21 -20 -19 -19 -20 -20 -20 -20 -21 -21 -21 -22 -22 -22 -21 -20 -20 -19 -18 -18
-19 -19 -19 -19 -19 -19 -19 -19 -19 -19 -19 -20 -20 -20 -20 -20 -21 -21 -20 -20 -20 -21 -21 -21 -21 -21 -21 -21 -21 -21 -21 -21 -21 -21 -22 -22 -22 -22 -22 -22 -22 -21 -21 -20 -20
-20 -19 -19 -20 -20 -20 -21 -20 -20 -20 -21 -21 -21 -21 -22 -21 -21 -21 -21 -21 -22 -22 -22 -22 -23 -22 -22 -22 -22 -22 -22 -22 -22 -22 -23 -22 -23 -22 -23 -22 -22 -22 -22 -22 -21
-21 -21 -20 -21 -21 -21 -21 -21 -21 -21 -22 -21 -23 -22 -23 -23 -23 -23 -23 -22 -22 -22 -23 -22 -23 -23 -23 -23 -23 -23 -23 -22 -23 -23 -23 -23 -23 -23 -23 -23 -23 -23 -23 -23 -23
-22 -22 -22 -22 -22 -22 -22 -22 -22 -22 -22 -22 -22 -23 -23 -23 -24 -24 -24 -23 -23 -23 -23 -23 -24 -24 -24 -24 -24 -24 -23 -24 -24 -24 -24 -24 -25 -25 -25 -25 -25 -25 -25 -24 -24

GFSSW_500_temp_006.txt.gz
Temp
-9 -9 -9 -9 -9 -9 -9 -9 -9 -9 -9 -9 -9 -9 -9 -9 -9 -9 -9 -9 -9 -9 -9 -9 -9 -9 -9 -10 -10 -10 -10 -10 -10 -10 -10 -10 -10 -11 -11 -11 -11 -11 -11 -10 -10
-9 -9 -9 -10 -10 -10 -10 -10 -9 -9 -9 -9 -9 -9 -9 -9 -9 -9 -9 -9 -9 -9 -9 -9 -10 -10 -10 -10 -10 -10 -10 -10 -10 -10 -10 -10 -11 -11 -11 -11 -12 -11 -11 -11 -11
-10 -10 -10 -10 -10 -10 -10 -10 -10 -10 -9 -9 -9 -9 -9 -9 -9 -9 -9 -9 -10 -10 -10 -10 -10 -10 -10 -10 -10 -10 -10 -10 -10 -10 -10 -11 -11 -11 -11 -11 -12 -11 -11 -11 -11
-10 -10 -10 -10 -10 -10 -10 -10 -10 -10 -9 -9 -9 -9 -9 -9 -10 -10 -10 -10 -10 -10 -10 -10 -10 -10 -10 -10 -10 -10 -10 -10 -10 -10 -10 -11 -11 -11 -11 -11 -11 -11 -11 -11 -11
-10 -10 -10 -10 -10 -10 -10 -9 -9 -9 -9 -9 -9 -9 -9 -9 -10 -9 -10 -10 -10 -10 -10 -10 -10 -10 -10 -10 -11 -10 -10 -11 -10 -10 -10 -11 -11 -10 -11 -12 -11 -11 -11 -11 -11
-10 -10 -10 -10 -10 -9 -9 -9 -9 -9 -9 -9 -9 -9 -9 -10 -10 -10 -10 -10 -10 -10 -10 -10 -10 -11 -11 -11 -11 -10 -10 -10 -10 -11 -11 -11 -11 -11 -11 -11 -11 -11 -11 -11 -11
-10 -10 -10 -10 -10 -10 -10 -10 -10 -10 -10 -10 -10 -10 -10 -10 -10 -10 -10 -10 -10 -11 -11 -11 -11 -11 -11 -11 -10 -10 -10 -10 -10 -10 -10 -11 -10 -10 -11 -11 -11 -11 -11 -11 -11
-11 -10 -10 -10 -10 -10 -10 -10 -10 -10 -10 -10 -10 -10 -10 -10 -10 -10 -10 -11 -11 -11 -11 -11 -11 -11 -11 -11 -10 -10 -10 -10 -10 -10 -10 -10 -10 -10 -10 -10 -10 -11 -11 -11 -11
-11 -11 -11 -11 -11 -11 -11 -10 -10 -10 -10 -10 -10 -10 -10 -11 -11 -11 -11 -11 -11 -11 -11 -11 -11 -11 -11 -11 -11 -11 -10 -10 -9 -10 -9 -9 -9 -9 -10 -10 -10 -11 -11 -11 -11
-11 -11 -11 -11 -11 -11 -11 -11 -11 -10 -10 -10 -10 -10 -10 -11 -11 -11 -11 -11 -11 -11 -11 -11 -11 -11 -11 -11 -11 -11 -10 -10 -10 -10 -10 -9 -9 -9 -10 -10 -10 -11 -11 -10 -11
-11 -11 -11 -11 -11 -11 -11 -11 -11 -11 -11 -11 -11 -11 -11 -11 -11 -11 -11 -11 -12 -11 -11 -11 -11 -11 -12 -11 -11 -11 -11 -11 -11 -11 -9 -9 -9 -10 -10 -10 -10 -11 -10 -10 -10
-11 -11 -11 -11 -12 -11 -11 -11 -11 -10 -10 -11 -11 -11 -11 -11 -11 -11 -12 -12 -12 -11 -11 -11 -11 -12 -12 -12 -12 -11 -11 -11 -11 -11 -10 -10 -10 -10 -10 -11 -11 -11 -10 -10 -10
-12 -12 -11 -11 -12 -11 -11 -11 -11 -11 -10 -10 -11 -11 -11 -12 -11 -12 -12 -12 -12 -12 -12 -11 -12 -12 -12 -12 -12 -12 -12 -12 -11 -11 -11 -10 -10 -10 -11 -12 -12 -11 -11 -11 -11
-12 -12 -12 -12 -12 -12 -12 -12 -11 -11 -11 -10 -11 -11 -11 -12 -12 -12 -12 -12 -13 -13 -13 -12 -13 -13 -13 -13 -14 -12 -13 -12 -12 -12 -11 -11 -8 -11 -11 -12 -12 -11 -10 -11 -11
-13 -12 -12 -12 -13 -13 -13 -12 -12 -12 -11 -11 -11 -11 -12 -13 -13 -13 -13 -13 -13 -13 -13 -13 -13 -13 -13 -14 -14 -13 -13 -13 -12 -11 -11 -11 -11 -11 -12 -12 -13 -13 -13 -13 -12
-14 -13 -13 -13 -13 -13 -13 -13 -13 -13 -11 -12 -13 -13 -14 -14 -13 -14 -13 -13 -14 -14 -14 -14 -14 -14 -14 -15 -15 -15 -15 -14 -14 -13 -11 -12 -12 -11 -13 -13 -14 -14 -14 -14 -15
-14 -14 -14 -14 -14 -13 -14 -14 -13 -12 -12 -13 -14 -14 -14 -14 -15 -15 -14 -14 -14 -14 -15 -15 -15 -15 -15 -15 -15 -16 -15 -16 -15 -15 -13 -13 -12 -11 -14 -14 -15 -15 -15 -15 -16
-14 -14 -14 -14 -14 -14 -14 -14 -13 -12 -13 -14 -15 -14 -14 -15 -16 -16 -16 -15 -15 -16 -15 -15 -13 -15 -15 -15 -15 -15 -15 -16 -17 -15 -15 -15 -12 -12 -14 -13 -14 -14 -14 -14 -14
-14 -14 -15 -15 -15 -15 -15 -14 -14 -14 -14 -15 -16 -15 -15 -15 -16 -16 -16 -15 -16 -16 -17 -17 -15 -15 -16 -16 -16 -16 -16 -17 -18 -18 -18 -15 -14 -13 -15 -14 -15 -15 -15 -15 -15
-15 -14 -14 -15 -15 -16 -16 -14 -15 -16 -17 -17 -16 -16 -15 -16 -16 -16 -16 -15 -16 -16 -17 -17 -17 -16 -17 -17 -17 -18 -18 -19 -19 -20 -19 -18 -17 -16 -17 -17 -17 -17 -17 -17 -16
-15 -15 -15 -15 -15 -15 -15 -16 -17 -17 -18 -18 -19 -18 -17 -17 -17 -17 -16 -16 -16 -17 -18 -18 -19 -16 -18 -17 -18 -19 -19 -19 -19 -20 -20 -20 -19 -18 -18 -18 -17 -17 -17 -18 -17
-16 -16 -16 -16 -16 -16 -15 -17 -18 -18 -20 -20 -20 -19 -19 -19 -18 -19 -18 -18 -18 -18 -18 -19 -20 -20 -18 -19 -19 -19 -20 -20 -21 -20 -21 -21 -21 -20 -20 -20 -19 -19 -19 -18 -18
-17 -18 -18 -17 -17 -17 -19 -19 -19 -18 -19 -19 -19 -19 -19 -19 -19 -19 -19 -19 -19 -19 -19 -20 -20 -21 -20 -20 -19 -21 -20 -21 -21 -21 -21 -22 -21 -21 -21 -20 -21 -21 -20 -20 -19
-18 -19 -19 -18 -18 -19 -19 -19 -19 -19 -19 -19 -19 -20 -20 -20 -20 -20 -20 -20 -20 -20 -20 -21 -21 -21 -21 -21 -21 -21 -21 -22 -22 -22 -22 -22 -22 -22 -22 -22 -22 -23 -22 -22 -21
-19 -19 -19 -19 -19 -20 -20 -19 -19 -20 -20 -20 -20 -21 -21 -21 -21 -21 -21 -21 -21 -21 -21 -22 -22 -22 -22 -22 -22 -22 -22 -22 -22 -22 -23 -22 -23 -22 -23 -24 -23 -23 -23 -23 -23
-20 -21 -21 -20 -20 -20 -21 -20 -20 -21 -21 -21 -21 -22 -22 -22 -23 -22 -22 -22 -22 -22 -23 -23 -23 -23 -23 -23 -23 -23 -23 -22 -22 -23 -24 -24 -24 -24 -24 -24 -24 -24 -25 -25 -24
-21 -21 -21 -21 -21 -21 -21 -22 -22 -22 -22 -22 -22 -23 -23 -23 -23 -23 -23 -23 -23 -23 -23 -23 -23 -23 -23 -23 -24 -24 -22 -23 -24 -23 -24 -25 -25 -26 -25 -25 -25 -25 -25 -25 -25

GFSSW_500_temp_009.txt.gz
Temp
-9 -9 -9 -9 -9 -9 -9 -9 -9 -9 -9 -9 -9 -9 -9 -9 -9 -9 -9 -9 -9 -9 -9 -9 -9 -9 -9 -10 -10 -10 -10 -10 -10 -10 -10 -10 -11 -10 -11 -11 -12 -11 -11 -10 -11
-10 -10 -9 -9 -9 -9 -9 -9 -9 -9 -9 -9 -9 -9 -9 -9 -9 -9 -9 -9 -9 -9 -9 -9 -9 -10 -10 -10 -10 -10 -10 -10 -10 -10 -10 -10 -10 -11 -11 -11 -12 -11 -11 -11 -11
-10 -10 -10 -10 -10 -10 -10 -10 -10 -10 -10 -9 -9 -9 -9 -9 -9 -9 -9 -9 -9 -9 -9 -10 -10 -10 -10 -10 -10 -10 -10 -10 -10 -10 -10 -10 -11 -10 -11 -11 -11 -11 -11 -11 -11
-10 -10 -10 -10 -10 -10 -10 -10 -10 -10 -9 -9 -9 -9 -9 -9 -9 -9 -9 -9 -9 -10 -10 -10 -10 -10 -10 -10 -10 -10 -10 -11 -11 -11 -11 -11 -11 -10 -10 -11 -11 -11 -11 -11 -11
-10 -10 -10 -10 -10 -10 -10 -10 -10 -10 -10 -9 -9 -9 -9 -9 -9 -9 -9 -9 -10 -10 -10 -10 -10 -10 -10 -10 -10 -10 -11 -11 -11 -11 -11 -11 -11 -10 -11 -11 -11 -11 -11 -11 -11
-10 -10 -10 -10 -10 -10 -10 -10 -10 -10 -10 -9 -9 -9 -9 -10 -10 -10 -10 -10 -10 -10 -10 -10 -10 -10 -11 -10 -10 -10 -10 -11 -11 -11 -10 -10 -10 -11 -11 -10 -11 -11 -11 -11 -11
-10 -10 -10 -10 -10 -10 -10 -10 -10 -10 -10 -10 -10 -10 -10 -10 -10 -10 -10 -10 -10 -10 -10 -10 -11 -11 -11 -11 -10 -10 -10 -10 -11 -10 -10 -11 -10 -11 -10 -11 -10 -11 -11 -11 -10
-10 -10 -10 -10 -10 -10 -10 -10 -10 -10 -10 -10 -10 -10 -10 -10 -10 -10 -10 -10 -11 -11 -11 -11 -11 -11 -11 -11 -10 -10 -10 -10 -10 -10 -10 -11 -10 -11 -11 -11 -11 -11 -11 -11 -11
-11 -11 -11 -11 -11 -10 -10 -10 -10 -10 -11 -10 -10 -10 -10 -11 -11 -11 -10 -10 -10 -11 -11 -11 -11 -11 -11 -11 -11 -11 -10 -10 -10 -11 -10 -10 -10 -10 -11 -10 -11 -11 -11 -10 -10
-11 -11 -11 -11 -11 -11 -11 -11 -10 -10 -10 -11 -10 -11 -10 -11 -11 -11 -11 -11 -11 -11 -11 -11 -11 -11 -11 -11 -11 -11 -11 -11 -10 -11 -10 -10 -10 -10 -10 -10 -11 -11 -11 -10 -10
-11 -11 -11 -11 -11 -11 -11 -11 -11 -11 -11 -11 -11 -11 -11 -11 -11 -11 -11 -11 -11 -11 -11 -11 -11 -11 -12 -11 -11 -11 -11 -11 -11 -11 -11 -10 -10 -11 -11 -11 -11 -11 -11 -11 -10
-12 -11 -11 -12 -11 -11 -11 -11 -11 -11 -10 -11 -11 -11 -11 -11 -11 -11 -11 -11 -11 -11 -11 -11 -11 -11 -12 -12 -12 -11 -11 -11 -11 -11 -11 -11 -11 -11 -11 -12 -12 -11 -10 -11 -11
-12 -11 -11 -11 -11 -11 -11 -11 -11 -11 -10 -10 -11 -11 -11 -12 -11 -11 -12 -11 -11 -11 -11 -11 -11 -11 -12 -12 -12 -12 -12 -12 -12 -12 -12 -11 -11 -11 -11 -11 -11 -11 -11 -11 -11
-11 -11 -12 -11 -11 -11 -11 -11 -11 -11 -11 -10 -11 -11 -11 -11 -11 -12 -11 -12 -12 -12 -12 -11 -12 -12 -12 -13 -13 -12 -13 -13 -13 -13 -13 -12 -11 -12 -13 -13 -11 -12 -12 -12 -12
-12 -12 -12 -12 -12 -12 -12 -12 -12 -12 -12 -12 -11 -11 -12 -12 -12 -12 -13 -13 -13 -13 -13 -12 -12 -13 -13 -13 -14 -13 -13 -14 -14 -13 -13 -13 -13 -12 -13 -13 -12 -13 -14 -13 -13
-13 -13 -13 -13 -13 -13 -12 -12 -13 -13 -12 -13 -13 -13 -13 -13 -13 -14 -13 -14 -14 -14 -14 -14 -14 -13 -14 -14 -14 -14 -14 -14 -14 -14 -13 -13 -14 -12 -13 -14 -13 -13 -14 -14 -15
-13 -13 -14 -14 -13 -13 -13 -13 -13 -13 -12 -13 -14 -14 -14 -14 -15 -15 -15 -15 -15 -14 -14 -15 -15 -14 -15 -15 -15 -15 -15 -15 -14 -15 -13 -15 -14 -12 -14 -13 -14 -14 -15 -15 -15
-14 -14 -14 -14 -14 -14 -14 -14 -13 -13 -13 -14 -14 -14 -14 -15 -15 -15 -16 -15 -16 -16 -15 -16 -14 -16 -15 -15 -16 -16 -15 -16 -16 -15 -14 -14 -13 -13 -14 -14 -14 -14 -15 -16 -16
-14 -14 -14 -14 -14 -14 -14 -14 -13 -14 -14 -15 -15 -14 -15 -15 -16 -16 -16 -16 -16 -16 -17 -17 -15 -17 -16 -16 -16 -16 -17 -17 -17 -17 -17 -15 -14 -14 -15 -16 -15 -15 -15 -15 -15
-15 -15 -15 -15 -15 -15 -15 -14 -14 -16 -15 -15 -15 -15 -15 -16 -17 -17 -17 -16 -17 -17 -17 -18 -18 -17 -17 -17 -17 -18 -18 -18 -19 -18 -18 -17 -17 -16 -17 -18 -17 -17 -17 -17 -17
-15 -15 -15 -15 -15 -15 -15 -15 -16 -16 -16 -16 -16 -16 -16 -16 -16 -16 -16 -16 -17 -18 -18 -18 -18 -17 -18 -17 -18 -18 -18 -18 -19 -19 -20 -20 -18 -17 -18 -19 -19 -20 -20 -19 -19
-16 -16 -15 -16 -17 -16 -15 -15 -16 -15 -16 -17 -18 -17 -17 -18 -18 -18 -18 -19 -19 -19 -18 -19 -20 -18 -17 -18 -19 -19 -19 -20 -21 -20 -21 -21 -21 -20 -20 -20 -20 -20 -20 -20 -20
-17 -17 -17 -17 -16 -16 -17 -17 -17 -17 -17 -18 -18 -17 -19 -19 -19 -19 -19 -19 -19 -19 -19 -19 -20 -20 -19 -19 -19 -20 -20 -20 -21 -22 -22 -22 -21 -21 -21 -21 -21 -21 -21 -21 -21
-18 -18 -17 -17 -17 -17 -18 -17 -18 -18 -18 -19 -19 -19 -19 -19 -19 -19 -19 -19 -19 -19 -20 -20 -20 -20 -21 -20 -20 -21 -21 -21 -22 -22 -22 -22 -22 -22 -22 -22 -22 -22 -22 -22 -22
-19 -18 -18 -19 -18 -19 -19 -18 -18 -19 -19 -19 -20 -20 -20 -20 -20 -20 -20 -20 -20 -20 -21 -21 -21 -21 -22 -22 -22 -22 -22 -22 -22 -22 -23 -22 -23 -23 -23 -24 -24 -24 -23 -23 -24
-19 -20 -20 -20 -20 -20 -19 -19 -20 -20 -20 -20 -20 -20 -20 -21 -21 -20 -21 -21 -21 -21 -22 -22 -22 -22 -22 -23 -23 -24 -23 -22 -23 -23 -24 -24 -24 -24 -24 -24 -24 -24 -25 -25 -25
-21 -21 -21 -21 -21 -21 -21 -21 -21 -21 -21 -21 -21 -21 -21 -21 -21 -22 -22 -22 -22 -22 -23 -23 -23 -24 -23 -24 -24 -24 -22 -24 -23 -23 -23 -24 -24 -24 -25 -25 -25 -26 -26 -26 -26

GFSSW_500_temp_012.txt.gz
Temp
-9 -9 -9 -9 -9 -9 -9 -9 -9 -9 -9 -9 -9 -9 -9 -9 -9 -9 -9 -9 -9 -9 -9 -9 -9 -9 -9 -9 -10 -10 -10 -10 -10 -10 -10 -10 -10 -11 -11 -11 -11 -10 -11 -10 -10
-10 -10 -10 -10 -10 -9 -9 -9 -9 -9 -9 -9 -9 -9 -9 -9 -9 -9 -9 -9 -9 -9 -9 -9 -9 -9 -9 -10 -10 -10 -10 -10 -10 -10 -10 -10 -10 -10 -10 -11 -11 -11 -11 -11 -11
-10 -10 -10 -10 -10 -10 -10 -10 -10 -10 -10 -10 -10 -10 -9 -9 -9 -9 -9 -9 -9 -9 -9 -9 -9 -10 -10 -10 -10 -10 -10 -10 -11 -10 -11 -11 -11 -10 -10 -10 -11 -11 -11 -11 -10
-10 -10 -10 -10 -10 -10 -10 -10 -10 -10 -10 -10 -10 -10 -10 -10 -9 -9 -9 -9 -9 -9 -10 -10 -10 -10 -10 -10 -10 -10 -10 -10 -11 -11 -11 -11 -11 -10 -11 -10 -10 -11 -11 -11 -11
-10 -10 -10 -10 -10 -10 -10 -10 -10 -10 -10 -10 -10 -10 -9 -10 -10 -9 -9 -9 -9 -10 -10 -10 -10 -10 -10 -10 -10 -10 -10 -11 -11 -11 -11 -11 -11 -10 -11 -10 -10 -10 -11 -11 -10
-10 -10 -10 -10 -10 -10 -10 -10 -10 -10 -10 -10 -10 -10 -10 -10 -10 -10 -9 -10 -10 -10 -10 -10 -10 -10 -10 -10 -10 -10 -11 -11 -11 -11 -10 -10 -11 -11 -11 -10 -10 -11 -11 -11 -10
-10 -10 -10 -10 -10 -10 -10 -10 -10 -10 -10 -10 -10 -10 -10 -10 -10 -10 -10 -10 -10 -10 -10 -10 -10 -10 -10 -10 -10 -11 -10 -11 -11 -11 -10 -10 -11 -11 -10 -11 -11 -11 -11 -11 -11
-11 -11 -11 -11 -10 -10 -10 -10 -10 -10 -10 -10 -10 -10 -10 -10 -10 -10 -10 -10 -10 -10 -10 -10 -10 -10 -11 -11 -11 -10 -10 -11 -11 -10 -10 -10 -10 -11 -11 -10 -11 -11 -11 -10 -10
-11 -11 -11 -11 -11 -11 -11 -11 -10 -10 -10 -10 -10 -10 -10 -11 -11 -11 -11 -11 -11 -11 -11 -11 -11 -11 -11 -11 -11 -11 -11 -10 -11 -11 -10 -9 -9 -10 -11 -11 -11 -11 -11 -10 -10
-11 -11 -11 -11 -11 -11 -11 -10 -11 -11 -11 -11 -11 -11 -11 -11 -11 -11 -11 -11 -11 -11 -11 -11 -11 -11 -11 -11 -11 -11 -11 -11 -11 -11 -11 -9 -9 -9 -10 -10 -11 -11 -10 -10 -11
-12 -11 -12 -12 -11 -11 -11 -11 -11 -11 -11 -11 -11 -11 -11 -11 -11 -11 -11 -11 -11 -11 -11 -11 -11 -11 -11 -12 -11 -11 -11 -11 -12 -12 -11 -11 -10 -10 -11 -12 -12 -11 -10 -10 -11
-12 -12 -12 -11 -11 -11 -11 -11 -11 -11 -11 -11 -11 -11 -11 -11 -11 -12 -12 -11 -11 -11 -11 -11 -11 -11 -11 -12 -12 -12 -11 -11 -11 -12 -11 -12 -11 -11 -12 -12 -12 -12 -11 -11 -11
-12 -12 -12 -12 -11 -11 -11 -11 -11 -11 -11 -11 -12 -11 -11 -11 -11 -11 -12 -12 -11 -11 -11 -11 -11 -11 -11 -12 -12 -12 -12 -12 -12 -12 -12 -12 -11 -12 -12 -12 -11 -12 -12 -12 -12
-12 -12 -12 -12 -11 -11 -11 -11 -11 -11 -11 -10 -10 -10 -11 -11 -11 -11 -11 -11 -11 -12 -12 -11 -12 -12 -12 -12 -12 -12 -13 -13 -13 -13 -13 -13 -12 -13 -14 -13 -12 -12 -13 -13 -13
-12 -12 -12 -11 -12 -12 -12 -12 -12 -12 -11 -11 -10 -11 -12 -12 -11 -11 -11 -12 -12 -13 -13 -13 -12 -13 -13 -13 -13 -13 -14 -14 -14 -14 -14 -13 -15 -13 -14 -14 -14 -14 -14 -15 -15
-13 -12 -12 -12 -12 -12 -12 -12 -13 -13 -12 -12 -12 -12 -12 -12 -12 -13 -13 -13 -13 -13 -13 -14 -13 -13 -13 -14 -14 -14 -14 -14 -15 -15 -14 -14 -15 -13 -15 -15 -15 -15 -16 -16 -16
-13 -13 -13 -13 -13 -13 -13 -13 -13 -13 -13 -13 -13 -13 -13 -13 -13 -13 -13 -14 -14 -14 -14 -14 -14 -15 -15 -15 -15 -15 -15 -15 -16 -15 -14 -15 -15 -14 -14 -15 -15 -16 -16 -16 -16
-14 -14 -14 -14 -13 -14 -14 -14 -13 -13 -14 -14 -13 -13 -13 -13 -13 -14 -15 -15 -15 -15 -15 -16 -16 -16 -15 -16 -16 -16 -17 -17 -17 -16 -15 -15 -14 -15 -16 -15 -15 -16 -16 -16 -16
-14 -14 -15 -14 -14 -14 -14 -13 -13 -14 -14 -14 -14 -14 -14 -14 -15 -14 -15 -15 -16 -16 -16 -16 -15 -16 -16 -16 -16 -16 -17 -17 -17 -16 -16 -14 -14 -15 -15 -16 -16 -17 -17 -17 -18
-14 -14 -15 -15 -14 -14 -14 -14 -14 -15 -14 -15 -15 -15 -15 -16 -16 -15 -16 -15 -16 -16 -16 -16 -16 -16 -16 -17 -17 -18 -18 -17 -18 -19 -18 -17 -17 -16 -17 -17 -18 -18 -18 -18 -18
-14 -14 -14 -14 -15 -15 -14 -14 -15 -16 -16 -16 -16 -15 -16 -16 -16 -16 -15 -15 -15 -16 -16 -17 -17 -16 -18 -17 -18 -19 -18 -18 -19 -19 -19 -19 -17 -17 -18 -19 -19 -19 -19 -19 -19
-15 -15 -15 -15 -15 -14 -14 -14 -15 -15 -16 -16 -16 -16 -16 -17 -17 -17 -16 -17 -17 -16 -16 -18 -19 -19 -18 -18 -19 -19 -19 -19 -19 -19 -20 -20 -20 -18 -20 -20 -20 -20 -20 -20 -20
-16 -16 -17 -16 -16 -16 -16 -16 -17 -16 -17 -17 -17 -17 -17 -17 -18 -17 -18 -18 -18 -18 -17 -18 -19 -19 -18 -18 -19 -20 -20 -20 -20 -21 -20 -21 -20 -21 -21 -21 -21 -21 -21 -22 -21
-18 -19 -18 -18 -17 -17 -18 -17 -17 -17 -18 -18 -18 -17 -18 -18 -19 -18 -19 -19 -19 -19 -19 -20 -20 -20 -20 -20 -20 -20 -20 -20 -21 -21 -22 -22 -22 -22 -22 -23 -22 -22 -22 -22 -22
-18 -18 -18 -18 -17 -18 -18 -18 -18 -19 -19 -19 -19 -19 -19 -19 -19 -19 -20 -20 -20 -20 -20 -20 -20 -20 -20 -21 -21 -21 -21 -21 -22 -22 -23 -22 -23 -23 -23 -23 -23 -23 -23 -23 -23
-18 -18 -18 -18 -19 -19 -19 -18 -19 -19 -20 -19 -19 -19 -20 -20 -20 -20 -20 -20 -21 -21 -20 -21 -21 -21 -21 -22 -22 -22 -21 -22 -23 -23 -23 -24 -24 -24 -24 -24 -24 -24 -24 -24 -24
-19 -19 -19 -19 -19 -19 -19 -19 -20 -21 -20 -20 -20 -20 -20 -20 -21 -21 -21 -21 -21 -21 -21 -22 -22 -23 -22 -23 -23 -23 -22 -23 -23 -23 -24 -24 -24 -24 -24 -24 -24 -24 -24 -24 -24

GFSSW_500_temp_015.txt.gz
Temp
-10 -10 -10 -10 -10 -10 -10 -9 -9 -9 -9 -9 -9 -9 -9 -9 -9 -9 -9 -9 -9 -9 -9 -9 -9 -9 -9 -9 -10 -10 -10 -10 -10 -10 -10 -10 -10 -10 -11 -11 -11 -10 -11 -10 -10
-10 -10 -10 -10 -10 -10 -10 -10 -10 -10 -10 -9 -10 -9 -9 -9 -9 -9 -9 -9 -9 -9 -9 -9 -9 -9 -9 -10 -10 -10 -10 -10 -10 -10 -11 -10 -10 -10 -10 -11 -11 -11 -11 -11 -11
-10 -10 -10 -10 -10 -10 -10 -10 -10 -10 -10 -10 -10 -10 -10 -10 -10 -10 -9 -9 -9 -9 -9 -9 -9 -9 -10 -10 -10 -10 -10 -10 -11 -11 -11 -11 -11 -11 -10 -11 -11 -11 -11 -11 -11
-10 -10 -10 -10 -10 -10 -10 -10 -10 -10 -10 -10 -10 -10 -10 -10 -10 -10 -9 -10 -9 -9 -9 -9 -9 -10 -10 -10 -10 -10 -10 -10 -11 -11 -11 -11 -11 -11 -11 -10 -10 -11 -11 -11 -10
-10 -10 -10 -10 -10 -10 -10 -10 -10 -10 -10 -10 -10 -10 -10 -10 -10 -10 -10 -9 -9 -9 -9 -10 -10 -10 -10 -10 -10 -10 -10 -11 -11 -11 -11 -11 -11 -11 -11 -10 -10 -11 -11 -10 -10
-10 -10 -10 -10 -10 -10 -10 -10 -10 -10 -10 -10 -10 -10 -10 -10 -10 -10 -10 -10 -9 -10 -10 -10 -10 -10 -10 -10 -10 -10 -10 -10 -11 -11 -11 -11 -11 -10 -11 -11 -11 -10 -10 -11 -10
-11 -10 -10 -10 -10 -10 -10 -10 -10 -10 -10 -10 -10 -10 -10 -10 -10 -10 -10 -10 -10 -10 -10 -10 -10 -10 -10 -10 -10 -11 -10 -11 -11 -10 -10 -10 -11 -11 -11 -11 -11 -11 -10 -10 -10
-11 -11 -11 -11 -11 -11 -10 -10 -10 -10 -10 -10 -10 -10 -10 -10 -10 -10 -10 -10 -11 -11 -11 -10 -10 -10 -11 -11 -11 -11 -11 -11 -11 -10 -11 -10 -10 -11 -11 -11 -11 -11 -10 -10 -11
-11 -11 -11 -11 -11 -11 -11 -11 -11 -11 -11 -11 -11 -11 -11 -11 -11 -11 -11 -11 -11 -11 -11 -11 -11 -11 -11 -11 -11 -11 -11 -11 -11 -11 -10 -10 -10 -11 -11 -11 -11 -11 -11 -11 -11
-12 -12 -12 -11 -11 -11 -11 -11 -11 -11 -11 -11 -11 -11 -11 -11 -11 -11 -11 -11 -11 -11 -11 -11 -11 -11 -11 -11 -11 -11 -10 -11 -11 -11 -11 -10 -10 -10 -11 -12 -11 -10 -11 -12 -11
-12 -12 -12 -12 -11 -11 -11 -11 -11 -11 -11 -11 -11 -11 -11 -11 -11 -11 -11 -11 -11 -11 -11 -11 -11 -11 -11 -11 -11 -11 -11 -11 -11 -11 -11 -11 -11 -11 -12 -12 -11 -11 -11 -12 -12
-12 -12 -12 -12 -12 -12 -12 -12 -11 -11 -11 -12 -11 -11 -11 -11 -11 -11 -11 -11 -11 -11 -11 -11 -11 -11 -11 -11 -11 -11 -11 -11 -11 -11 -11 -11 -11 -12 -12 -12 -12 -12 -12 -12 -12
-13 -12 -12 -12 -12 -12 -12 -12 -12 -12 -11 -11 -11 -11 -11 -11 -11 -11 -11 -11 -11 -11 -11 -11 -11 -12 -11 -11 -12 -12 -11 -12 -12 -13 -12 -12 -11 -12 -14 -13 -13 -13 -13 -13 -13
-13 -12 -12 -12 -12 -13 -13 -12 -12 -12 -11 -11 -11 -11 -11 -11 -11 -11 -11 -11 -11 -12 -12 -11 -11 -12 -12 -12 -12 -12 -12 -12 -12 -12 -12 -12 -12 -12 -13 -13 -13 -13 -13 -13 -13
-13 -13 -13 -12 -12 -13 -12 -12 -12 -12 -11 -11 -10 -11 -11 -11 -11 -11 -12 -12 -12 -12 -12 -12 -11 -12 -13 -12 -12 -12 -13 -13 -13 -13 -13 -13 -14 -12 -13 -13 -14 -14 -14 -15 -15
-13 -13 -12 -13 -12 -13 -13 -13 -12 -12 -11 -11 -12 -12 -12 -12 -12 -12 -12 -12 -12 -12 -12 -12 -12 -13 -13 -13 -13 -13 -14 -14 -15 -15 -14 -14 -15 -12 -14 -14 -14 -14 -15 -16 -17
-13 -13 -13 -12 -13 -13 -13 -13 -13 -12 -12 -12 -12 -13 -13 -13 -13 -13 -13 -13 -13 -13 -12 -13 -13 -13 -13 -14 -14 -15 -15 -15 -15 -15 -15 -14 -15 -14 -14 -14 -14 -15 -15 -16 -18
-13 -13 -13 -13 -13 -13 -13 -13 -13 -12 -13 -13 -14 -14 -13 -14 -14 -14 -14 -14 -14 -13 -14 -14 -14 -15 -15 -15 -15 -16 -16 -16 -16 -16 -15 -15 -14 -14 -14 -14 -15 -16 -17 -17 -18
-14 -14 -14 -14 -14 -14 -14 -13 -12 -13 -14 -14 -14 -14 -14 -14 -15 -15 -14 -15 -15 -16 -16 -16 -16 -16 -16 -16 -16 -16 -16 -16 -16 -16 -16 -14 -15 -15 -16 -16 -16 -16 -17 -17 -17
-15 -15 -14 -14 -14 -14 -14 -14 -14 -14 -14 -14 -14 -14 -14 -15 -15 -15 -15 -15 -16 -16 -16 -16 -16 -16 -16 -15 -16 -16 -17 -17 -17 -18 -18 -16 -16 -17 -17 -17 -18 -18 -18 -18 -18
-14 -15 -15 -15 -15 -15 -14 -14 -14 -15 -15 -15 -15 -15 -16 -16 -16 -16 -15 -15 -15 -15 -15 -15 -15 -15 -16 -16 -17 -17 -18 -18 -19 -19 -19 -19 -18 -18 -18 -18 -18 -19 -19 -19 -19
-15 -14 -15 -15 -15 -15 -15 -15 -15 -16 -16 -16 -15 -16 -16 -17 -17 -16 -15 -16 -15 -16 -17 -17 -17 -16 -16 -18 -18 -18 -18 -19 -19 -19 -19 -20 -19 -19 -19 -19 -20 -20 -20 -20 -20
-15 -14 -15 -14 -15 -15 -15 -15 -15 -15 -16 -16 -16 -16 -17 -17 -17 -17 -17 -17 -17 -17 -17 -17 -17 -17 -16 -17 -19 -20 -20 -20 -20 -20 -20 -21 -20 -20 -20 -21 -21 -21 -21 -21 -22
-15 -15 -15 -15 -15 -15 -15 -15 -15 -16 -17 -17 -17 -17 -17 -18 -18 -18 -18 -18 -18 -18 -18 -18 -18 -18 -18 -19 -20 -20 -20 -20 -21 -21 -21 -21 -21 -21 -22 -23 -22 -22 -22 -23 -23
-16 -16 -16 -16 -16 -17 -17 -17 -18 -19 -19 -19 -18 -18 -18 -18 -18 -19 -19 -19 -19 -19 -19 -19 -20 -20 -20 -20 -20 -20 -20 -20 -21 -22 -23 -23 -23 -22 -23 -23 -23 -23 -23 -24 -24
-19 -19 -18 -18 -18 -18 -18 -18 -19 -19 -20 -19 -18 -18 -19 -19 -19 -19 -20 -20 -20 -19 -20 -20 -20 -21 -21 -21 -22 -21 -20 -21 -22 -22 -23 -23 -23 -24 -23 -24 -24 -24 -24 -24 -24
-18 -19 -20 -19 -18 -18 -18 -18 -19 -19 -19 -19 -19 -19 -20 -20 -20 -21 -21 -21 -20 -20 -20 -21 -21 -22 -22 -22 -23 -22 -21 -23 -23 -23 -23 -23 -23 -23 -23 -24 -24 -24 -24 -24 -24

GFSSW_500_temp_021.txt.gz
Temp
-10 -10 -10 -10 -10 -10 -10 -10 -9 -9 -9 -10 -9 -9 -10 -10 -10 -10 -10 -10 -9 -9 -9 -9 -9 -9 -9 -9 -10 -10 -10 -10 -10 -10 -10 -11 -11 -11 -11 -12 -11 -11 -10 -10 -10
-10 -10 -10 -10 -10 -10 -10 -10 -10 -10 -10 -10 -10 -10 -10 -10 -10 -10 -10 -10 -10 -10 -10 -10 -10 -10 -10 -10 -10 -10 -10 -10 -10 -10 -10 -10 -11 -11 -11 -11 -11 -11 -10 -10 -10
-10 -10 -10 -10 -10 -10 -10 -10 -10 -10 -10 -10 -10 -10 -10 -10 -10 -10 -10 -10 -10 -10 -10 -10 -10 -10 -10 -10 -10 -10 -10 -10 -10 -10 -10 -11 -11 -11 -11 -11 -11 -11 -11 -10 -10
-10 -10 -10 -10 -10 -10 -10 -10 -10 -10 -10 -10 -10 -10 -10 -10 -10 -10 -10 -10 -10 -10 -10 -10 -10 -10 -10 -10 -10 -10 -10 -10 -10 -10 -10 -11 -11 -11 -11 -11 -11 -11 -11 -11 -11
-10 -10 -10 -10 -10 -10 -10 -10 -10 -10 -10 -10 -10 -10 -10 -10 -10 -10 -10 -10 -10 -10 -10 -10 -10 -10 -10 -10 -10 -10 -10 -11 -11 -11 -10 -11 -11 -11 -11 -11 -11 -11 -11 -11 -11
-11 -10 -10 -10 -10 -10 -10 -10 -10 -10 -10 -10 -10 -10 -10 -10 -10 -10 -10 -10 -10 -10 -10 -10 -10 -10 -10 -10 -10 -10 -11 -11 -11 -11 -11 -11 -11 -11 -11 -11 -11 -10 -10 -11 -11
-11 -11 -11 -11 -11 -10 -10 -10 -10 -10 -10 -11 -10 -10 -10 -10 -10 -10 -10 -10 -10 -10 -10 -10 -10 -10 -10 -10 -10 -10 -10 -10 -11 -11 -11 -11 -11 -11 -11 -11 -11 -11 -11 -11 -11
-12 -11 -11 -11 -11 -11 -11 -11 -10 -10 -10 -10 -10 -10 -10 -10 -10 -10 -10 -10 -10 -10 -10 -10 -10 -10 -10 -10 -10 -11 -11 -11 -11 -11 -11 -11 -11 -11 -11 -11 -11 -11 -11 -11 -11
-12 -12 -12 -12 -11 -11 -11 -11 -11 -11 -11 -11 -11 -11 -11 -11 -11 -11 -11 -11 -11 -11 -10 -10 -10 -10 -10 -11 -11 -11 -10 -10 -11 -10 -10 -10 -10 -11 -11 -11 -11 -11 -11 -11 -11
-12 -12 -12 -12 -12 -12 -12 -12 -11 -11 -11 -11 -11 -11 -11 -11 -11 -11 -11 -11 -11 -11 -11 -11 -11 -10 -11 -11 -10 -10 -10 -10 -10 -11 -10 -10 -10 -11 -12 -11 -11 -11 -11 -11 -11
-12 -12 -12 -12 -12 -12 -12 -12 -12 -12 -11 -11 -11 -11 -11 -11 -11 -11 -11 -11 -11 -11 -11 -11 -10 -11 -11 -10 -10 -11 -11 -11 -11 -11 -10 -10 -10 -11 -11 -11 -11 -11 -12 -12 -12
-13 -12 -12 -12 -12 -12 -12 -12 -12 -12 -12 -11 -11 -11 -11 -11 -11 -11 -11 -11 -11 -11 -11 -10 -10 -11 -10 -10 -11 -11 -11 -11 -11 -12 -10 -10 -10 -11 -11 -11 -11 -12 -12 -12 -12
-12 -12 -12 -12 -12 -12 -12 -13 -12 -12 -12 -11 -11 -11 -12 -11 -11 -11 -11 -11 -11 -11 -11 -11 -11 -11 -11 -11 -11 -11 -11 -11 -11 -11 -11 -11 -10 -11 -12 -12 -12 -12 -12 -13 -13
-12 -13 -12 -12 -12 -12 -13 -13 -13 -12 -12 -11 -11 -11 -12 -12 -11 -11 -11 -11 -11 -11 -11 -11 -11 -11 -11 -12 -12 -11 -12 -11 -11 -11 -11 -11 -10 -10 -12 -13 -13 -13 -13 -14 -13
-13 -13 -12 -13 -12 -13 -13 -13 -13 -13 -12 -11 -11 -11 -12 -12 -11 -11 -11 -11 -11 -11 -11 -11 -12 -12 -12 -12 -12 -12 -12 -12 -12 -11 -11 -11 -11 -10 -11 -12 -13 -13 -13 -14 -14
-14 -13 -13 -13 -13 -14 -14 -14 -14 -13 -11 -12 -11 -11 -11 -11 -11 -12 -12 -12 -12 -12 -12 -12 -12 -12 -13 -13 -13 -13 -13 -13 -12 -12 -12 -12 -12 -10 -12 -12 -13 -14 -14 -14 -14
-13 -14 -13 -13 -14 -14 -14 -14 -14 -12 -11 -11 -12 -12 -12 -12 -12 -12 -12 -12 -12 -12 -12 -13 -12 -12 -13 -13 -13 -13 -13 -13 -13 -13 -13 -13 -12 -12 -13 -13 -14 -14 -15 -14 -14
-13 -13 -13 -13 -14 -14 -14 -14 -13 -11 -12 -12 -12 -12 -13 -13 -13 -12 -12 -12 -13 -13 -13 -13 -13 -13 -13 -13 -14 -13 -13 -14 -14 -14 -14 -14 -12 -13 -13 -14 -14 -14 -14 -15 -15
-13 -13 -13 -13 -13 -13 -14 -14 -11 -11 -12 -12 -13 -13 -13 -13 -13 -13 -13 -13 -13 -14 -14 -14 -14 -14 -14 -14 -14 -14 -14 -15 -15 -15 -15 -14 -13 -14 -14 -14 -15 -15 -15 -15 -16
-13 -13 -13 -13 -14 -14 -15 -14 -12 -12 -12 -13 -13 -13 -13 -13 -13 -14 -13 -13 -14 -14 -14 -14 -14 -15 -15 -15 -15 -15 -15 -16 -16 -16 -15 -14 -14 -14 -15 -15 -15 -16 -16 -16 -16
-14 -14 -13 -14 -14 -14 -14 -13 -12 -12 -13 -13 -14 -14 -13 -14 -14 -14 -13 -14 -14 -14 -15 -15 -15 -15 -16 -16 -16 -16 -16 -16 -17 -16 -16 -16 -15 -15 -16 -16 -16 -16 -17 -17 -18
-14 -14 -13 -14 -14 -14 -14 -13 -13 -13 -14 -14 -14 -14 -14 -14 -14 -14 -14 -14 -14 -14 -16 -16 -15 -15 -16 -16 -16 -16 -16 -17 -17 -17 -17 -18 -16 -17 -17 -17 -18 -18 -18 -19 -19
-14 -14 -13 -13 -14 -14 -14 -14 -13 -14 -14 -14 -14 -14 -14 -15 -15 -15 -15 -15 -15 -16 -16 -17 -16 -15 -16 -17 -16 -17 -17 -18 -18 -18 -18 -18 -17 -18 -18 -18 -19 -19 -20 -20 -21
-14 -14 -14 -14 -14 -14 -14 -14 -14 -14 -15 -15 -15 -15 -15 -15 -15 -15 -15 -16 -16 -16 -17 -17 -17 -16 -16 -18 -18 -17 -18 -18 -19 -19 -19 -19 -19 -19 -19 -20 -20 -21 -22 -22 -22
-14 -14 -14 -13 -14 -14 -14 -14 -15 -15 -15 -15 -15 -15 -16 -16 -15 -16 -16 -17 -17 -17 -17 -18 -18 -18 -17 -18 -19 -18 -18 -18 -18 -19 -20 -19 -19 -19 -21 -22 -22 -22 -22 -23 -23
-15 -14 -14 -14 -14 -14 -14 -14 -15 -15 -15 -15 -15 -15 -16 -16 -15 -17 -17 -17 -17 -17 -18 -19 -18 -19 -18 -19 -19 -19 -18 -18 -19 -20 -20 -20 -20 -21 -22 -22 -23 -24 -24 -24 -24
-15 -15 -15 -15 -15 -16 -16 -15 -15 -15 -15 -15 -16 -16 -17 -16 -17 -17 -18 -18 -18 -18 -18 -19 -19 -19 -19 -20 -20 -19 -18 -20 -20 -20 -21 -22 -22 -23 -23 -24 -24 -24 -24 -24 -24

GFSSW_500_temp_024.txt.gz
Temp
-10 -10 -10 -10 -10 -9 -9 -9 -10 -10 -10 -10 -10 -10 -10 -10 -10 -10 -10 -10 -10 -10 -10 -10 -10 -10 -10 -10 -10 -10 -10 -10 -10 -10 -10 -10 -11 -11 -11 -11 -11 -11 -11 -11 -11
-10 -10 -10 -10 -10 -10 -10 -10 -10 -10 -10 -10 -10 -10 -10 -10 -10 -10 -10 -10 -10 -10 -10 -10 -10 -10 -10 -10 -10 -10 -10 -10 -10 -10 -10 -10 -10 -11 -11 -11 -11 -11 -11 -11 -11
-10 -10 -10 -10 -10 -10 -10 -10 -10 -10 -10 -10 -10 -10 -10 -10 -10 -10 -10 -10 -10 -10 -10 -10 -10 -10 -10 -10 -10 -10 -10 -10 -10 -10 -10 -10 -10 -10 -11 -11 -11 -11 -11 -11 -11
-10 -10 -10 -10 -10 -10 -10 -10 -10 -10 -10 -10 -10 -10 -10 -10 -10 -10 -10 -10 -10 -10 -10 -10 -10 -10 -10 -10 -10 -10 -10 -10 -10 -10 -10 -11 -11 -10 -10 -11 -11 -11 -11 -11 -11
-10 -10 -10 -10 -10 -10 -10 -10 -10 -10 -10 -10 -10 -10 -10 -10 -10 -10 -10 -10 -10 -10 -10 -10 -10 -10 -10 -10 -10 -10 -10 -10 -11 -10 -10 -11 -11 -11 -11 -11 -11 -11 -11 -11 -11
-11 -11 -11 -10 -10 -10 -10 -10 -10 -10 -10 -10 -10 -10 -10 -10 -10 -10 -10 -10 -10 -10 -10 -10 -10 -10 -10 -10 -10 -10 -10 -11 -11 -11 -11 -11 -11 -11 -11 -11 -11 -10 -11 -11 -11
-11 -11 -11 -11 -11 -11 -10 -10 -10 -10 -10 -10 -10 -10 -10 -10 -10 -10 -10 -10 -10 -10 -10 -10 -10 -10 -10 -10 -10 -10 -10 -11 -11 -11 -11 -11 -11 -11 -10 -10 -11 -11 -11 -11 -11
-11 -11 -11 -11 -11 -11 -11 -11 -11 -11 -11 -11 -11 -10 -10 -10 -10 -10 -10 -10 -10 -10 -10 -10 -10 -10 -10 -10 -10 -10 -10 -10 -10 -11 -11 -10 -11 -10 -10 -10 -11 -11 -11 -11 -11
-12 -12 -12 -11 -11 -11 -11 -11 -11 -11 -11 -11 -11 -11 -10 -11 -11 -10 -10 -10 -10 -11 -11 -11 -10 -10 -10 -11 -11 -10 -10 -10 -11 -11 -10 -10 -11 -11 -10 -10 -10 -11 -11 -11 -11
-13 -13 -12 -12 -12 -12 -12 -12 -12 -12 -11 -11 -11 -11 -11 -11 -11 -11 -11 -11 -11 -11 -11 -11 -10 -10 -11 -11 -10 -10 -10 -10 -11 -10 -10 -10 -10 -11 -11 -11 -11 -11 -11 -11 -11
-13 -13 -13 -13 -13 -12 -12 -12 -12 -12 -12 -12 -11 -11 -11 -11 -11 -11 -11 -11 -11 -11 -11 -11 -10 -11 -11 -10 -10 -10 -10 -10 -11 -11 -10 -10 -10 -11 -11 -11 -11 -11 -11 -11 -11
-13 -13 -13 -13 -13 -13 -13 -13 -13 -12 -12 -12 -12 -11 -11 -11 -11 -11 -11 -11 -11 -11 -11 -11 -10 -11 -11 -11 -10 -10 -10 -10 -11 -11 -10 -10 -10 -11 -11 -11 -11 -11 -11 -11 -11
-13 -13 -13 -13 -12 -13 -13 -13 -13 -12 -12 -12 -12 -11 -11 -12 -11 -12 -11 -11 -11 -11 -11 -11 -11 -11 -11 -11 -11 -11 -11 -11 -11 -11 -11 -10 -10 -11 -11 -11 -11 -11 -12 -12 -12
-13 -13 -13 -13 -12 -13 -13 -13 -13 -13 -12 -11 -12 -11 -11 -12 -11 -12 -12 -11 -11 -11 -11 -10 -11 -11 -11 -11 -11 -11 -11 -11 -11 -11 -11 -11 -10 -10 -11 -11 -12 -12 -12 -12 -12
-13 -13 -13 -13 -13 -13 -14 -14 -14 -13 -12 -11 -11 -11 -12 -12 -11 -11 -12 -11 -11 -11 -11 -10 -11 -11 -11 -11 -11 -11 -12 -11 -11 -11 -10 -11 -10 -10 -11 -11 -12 -13 -13 -13 -13
-13 -13 -14 -13 -13 -14 -14 -14 -14 -14 -11 -11 -11 -11 -11 -12 -12 -12 -12 -11 -11 -11 -11 -11 -11 -11 -12 -12 -12 -12 -12 -12 -12 -11 -10 -12 -12 -9 -10 -12 -12 -13 -13 -13 -14
-14 -13 -13 -14 -14 -14 -15 -15 -15 -13 -11 -11 -11 -12 -12 -12 -12 -12 -12 -12 -11 -11 -11 -12 -12 -12 -12 -13 -13 -13 -13 -13 -12 -12 -11 -11 -11 -11 -12 -12 -13 -13 -14 -14 -14
-13 -14 -13 -13 -14 -14 -14 -15 -14 -10 -11 -12 -12 -12 -12 -12 -13 -13 -12 -12 -12 -12 -12 -12 -12 -13 -13 -13 -13 -13 -13 -14 -13 -13 -13 -12 -10 -11 -12 -13 -13 -14 -14 -15 -15
-13 -13 -12 -13 -13 -13 -14 -14 -11 -11 -12 -13 -13 -13 -13 -13 -13 -13 -12 -12 -12 -13 -13 -13 -13 -14 -14 -14 -14 -13 -13 -14 -14 -13 -13 -12 -13 -13 -13 -14 -14 -15 -15 -15 -15
-14 -14 -13 -13 -13 -14 -15 -14 -11 -11 -12 -13 -12 -13 -13 -13 -13 -13 -13 -12 -13 -14 -14 -14 -14 -14 -14 -14 -13 -13 -14 -14 -15 -14 -13 -13 -13 -14 -15 -15 -15 -15 -15 -16 -16
-14 -14 -12 -14 -14 -14 -15 -13 -12 -12 -13 -13 -13 -13 -13 -13 -13 -13 -13 -13 -14 -15 -15 -14 -14 -13 -13 -13 -14 -14 -14 -14 -16 -15 -15 -14 -14 -14 -15 -16 -16 -16 -16 -17 -17
-14 -14 -14 -14 -14 -14 -14 -13 -13 -12 -12 -13 -13 -13 -14 -14 -14 -14 -13 -14 -14 -15 -15 -15 -14 -13 -14 -14 -14 -15 -15 -16 -16 -16 -16 -16 -13 -15 -16 -16 -17 -17 -17 -18 -18
-14 -14 -14 -14 -14 -14 -14 -14 -14 -13 -13 -13 -13 -13 -14 -14 -14 -14 -14 -15 -15 -15 -15 -15 -14 -14 -14 -14 -14 -15 -16 -16 -16 -17 -16 -18 -15 -17 -17 -17 -18 -19 -19 -19 -19
-14 -14 -14 -14 -14 -14 -14 -14 -14 -13 -13 -13 -13 -14 -14 -15 -15 -14 -15 -15 -15 -16 -16 -16 -15 -14 -14 -15 -15 -16 -16 -16 -17 -16 -17 -17 -18 -18 -18 -19 -19 -19 -19 -19 -20
-15 -14 -14 -15 -14 -14 -14 -14 -14 -14 -14 -14 -14 -14 -14 -15 -15 -15 -15 -16 -16 -15 -16 -16 -15 -15 -15 -16 -16 -16 -16 -16 -16 -17 -18 -17 -19 -19 -20 -21 -21 -20 -20 -20 -21
-15 -15 -14 -15 -15 -14 -14 -14 -14 -14 -14 -14 -14 -14 -14 -15 -15 -15 -15 -15 -16 -16 -16 -16 -16 -16 -16 -17 -17 -16 -16 -16 -16 -17 -18 -20 -19 -20 -21 -21 -21 -21 -21 -22 -22
-16 -16 -15 -15 -15 -15 -14 -14 -14 -14 -14 -14 -14 -14 -15 -15 -15 -15 -16 -16 -16 -16 -16 -17 -17 -17 -17 -18 -18 -17 -15 -16 -18 -19 -20 -20 -20 -21 -21 -21 -21 -22 -23 -23 -24

GFSSW_500_temp_027.txt.gz
Temp
-10 -10 -10 -10 -10 -10 -10 -10 -10 -10 -10 -10 -10 -10 -10 -10 -10 -10 -10 -10 -10 -10 -10 -10 -10 -10 -10 -10 -10 -10 -10 -10 -10 -10 -10 -10 -10 -11 -11 -11 -11 -11 -11 -11 -11
-10 -10 -10 -10 -10 -10 -10 -10 -10 -10 -10 -10 -10 -10 -10 -10 -10 -10 -10 -10 -10 -10 -10 -10 -10 -10 -10 -10 -10 -10 -10 -10 -10 -10 -10 -10 -10 -11 -11 -11 -11 -11 -11 -11 -11
-10 -10 -10 -10 -10 -10 -10 -10 -10 -10 -10 -10 -10 -10 -10 -10 -10 -10 -10 -10 -10 -10 -10 -10 -10 -10 -10 -10 -10 -10 -10 -10 -10 -10 -10 -10 -11 -10 -10 -10 -11 -11 -11 -11 -11
-11 -11 -10 -10 -10 -10 -10 -10 -10 -10 -10 -10 -10 -10 -10 -10 -10 -10 -10 -10 -10 -10 -10 -10 -10 -10 -10 -10 -10 -10 -10 -10 -10 -10 -10 -11 -10 -10 -10 -11 -11 -11 -11 -11 -11
-11 -11 -11 -10 -10 -10 -10 -10 -10 -10 -10 -10 -10 -10 -10 -10 -10 -10 -10 -10 -10 -10 -10 -10 -10 -10 -10 -10 -10 -10 -10 -10 -10 -10 -10 -11 -10 -10 -10 -11 -11 -11 -11 -11 -11
-11 -11 -11 -11 -11 -10 -10 -10 -10 -10 -10 -10 -10 -10 -10 -10 -10 -10 -10 -10 -10 -10 -10 -10 -10 -10 -10 -10 -10 -10 -10 -11 -11 -10 -10 -10 -10 -10 -10 -10 -10 -10 -10 -11 -11
-11 -11 -11 -11 -11 -11 -11 -11 -11 -11 -10 -10 -10 -10 -10 -10 -10 -10 -10 -10 -10 -10 -10 -10 -10 -10 -10 -10 -10 -10 -10 -11 -11 -10 -10 -10 -10 -10 -10 -10 -10 -10 -10 -10 -10
-11 -11 -11 -11 -11 -11 -11 -11 -11 -11 -11 -11 -11 -10 -10 -11 -10 -10 -10 -10 -10 -10 -10 -10 -10 -10 -11 -11 -11 -11 -10 -10 -11 -11 -11 -10 -11 -10 -10 -10 -10 -10 -10 -10 -11
-12 -12 -12 -11 -11 -11 -11 -11 -11 -11 -11 -11 -11 -11 -11 -11 -11 -11 -10 -10 -10 -10 -10 -10 -10 -11 -11 -11 -11 -10 -10 -10 -11 -10 -10 -10 -11 -10 -10 -10 -10 -10 -10 -10 -10
-13 -12 -12 -12 -12 -12 -12 -12 -11 -11 -11 -11 -11 -11 -11 -11 -11 -11 -11 -11 -11 -11 -11 -11 -11 -11 -11 -11 -10 -10 -10 -11 -11 -10 -10 -10 -10 -10 -10 -10 -10 -10 -10 -10 -10
-13 -13 -13 -13 -12 -12 -12 -12 -12 -12 -12 -12 -11 -11 -11 -11 -11 -11 -11 -11 -11 -11 -11 -11 -10 -11 -11 -10 -10 -10 -10 -11 -11 -10 -10 -10 -9 -11 -10 -10 -10 -10 -10 -11 -11
-13 -13 -13 -13 -13 -13 -13 -13 -13 -13 -12 -12 -12 -12 -12 -12 -12 -12 -12 -11 -11 -11 -11 -11 -11 -11 -11 -11 -10 -10 -10 -10 -11 -10 -10 -10 -10 -10 -10 -10 -11 -11 -11 -11 -11
-14 -14 -14 -13 -13 -13 -13 -13 -13 -13 -12 -12 -12 -12 -12 -12 -12 -12 -11 -11 -11 -11 -11 -11 -11 -11 -11 -11 -11 -10 -10 -10 -10 -10 -10 -10 -10 -11 -11 -11 -11 -11 -11 -11 -11
-14 -14 -14 -14 -13 -13 -14 -14 -13 -13 -12 -11 -12 -11 -11 -12 -11 -12 -12 -12 -12 -11 -12 -11 -11 -11 -11 -11 -11 -11 -11 -10 -10 -10 -10 -10 -9 -10 -12 -12 -11 -11 -11 -12 -12
-14 -14 -14 -14 -13 -14 -15 -15 -14 -13 -12 -11 -11 -11 -12 -12 -12 -12 -12 -12 -11 -12 -12 -11 -11 -11 -11 -11 -11 -10 -11 -11 -11 -11 -10 -11 -10 -9 -11 -12 -12 -12 -12 -12 -13
-14 -14 -14 -13 -13 -14 -15 -15 -14 -14 -11 -11 -10 -11 -12 -12 -12 -12 -12 -12 -12 -12 -12 -12 -12 -11 -11 -11 -11 -11 -11 -11 -11 -11 -10 -11 -12 -10 -11 -12 -12 -12 -13 -14 -14
-14 -15 -14 -14 -14 -15 -14 -14 -14 -13 -11 -11 -11 -11 -12 -12 -12 -13 -13 -13 -12 -13 -12 -12 -12 -11 -11 -11 -11 -12 -12 -12 -11 -11 -11 -12 -11 -11 -11 -12 -12 -13 -13 -13 -13
-13 -14 -14 -14 -15 -15 -14 -14 -14 -10 -11 -11 -12 -12 -12 -12 -12 -13 -13 -13 -13 -13 -13 -13 -12 -12 -12 -13 -13 -12 -12 -12 -12 -12 -12 -11 -10 -11 -11 -12 -13 -13 -13 -13 -14
-13 -13 -13 -13 -15 -15 -14 -14 -10 -10 -11 -12 -13 -12 -12 -12 -12 -13 -13 -13 -13 -13 -13 -13 -12 -13 -13 -13 -13 -13 -12 -13 -13 -12 -12 -11 -10 -11 -11 -12 -13 -14 -14 -14 -15
-14 -13 -13 -13 -14 -15 -15 -14 -11 -12 -13 -13 -13 -13 -13 -13 -13 -13 -13 -12 -13 -13 -14 -13 -13 -13 -13 -13 -13 -13 -13 -13 -14 -13 -12 -11 -11 -12 -12 -13 -14 -14 -15 -15 -15
-15 -15 -13 -14 -14 -16 -15 -12 -12 -12 -13 -13 -13 -13 -12 -13 -13 -13 -13 -13 -13 -13 -14 -13 -13 -13 -14 -13 -14 -14 -14 -14 -14 -13 -13 -12 -12 -12 -13 -14 -14 -15 -15 -16 -16
-15 -15 -14 -15 -15 -15 -15 -12 -14 -13 -13 -13 -13 -13 -13 -13 -14 -13 -13 -14 -14 -14 -14 -14 -14 -13 -14 -14 -14 -14 -14 -14 -14 -14 -14 -13 -12 -13 -14 -15 -15 -16 -16 -16 -16
-15 -15 -15 -15 -15 -15 -15 -13 -14 -14 -13 -13 -13 -13 -14 -14 -14 -13 -13 -14 -14 -14 -14 -15 -14 -14 -14 -14 -14 -14 -14 -15 -15 -15 -14 -14 -13 -15 -15 -16 -16 -17 -17 -17 -17
-15 -14 -15 -15 -15 -15 -15 -15 -14 -14 -14 -14 -14 -14 -14 -14 -14 -14 -14 -14 -15 -15 -15 -15 -15 -14 -14 -14 -15 -15 -14 -15 -16 -15 -15 -15 -15 -16 -16 -17 -17 -17 -17 -17 -18
-15 -15 -15 -15 -14 -14 -15 -14 -14 -14 -14 -14 -14 -13 -14 -14 -14 -13 -14 -14 -14 -15 -15 -15 -15 -15 -14 -15 -15 -14 -15 -15 -15 -16 -17 -16 -17 -17 -18 -18 -18 -18 -18 -18 -18
-15 -15 -15 -15 -15 -15 -15 -14 -14 -14 -14 -14 -14 -14 -14 -14 -14 -14 -14 -14 -15 -15 -15 -15 -15 -15 -15 -15 -16 -15 -15 -15 -16 -17 -17 -18 -17 -18 -19 -19 -19 -19 -19 -19 -20
-16 -16 -15 -15 -15 -16 -15 -15 -15 -15 -14 -14 -14 -14 -14 -14 -15 -14 -14 -14 -15 -15 -15 -15 -15 -15 -16 -16 -16 -16 -14 -16 -17 -17 -18 -18 -18 -19 -19 -20 -20 -20 -20 -20 -21

GFSSW_500_temp_030.txt.gz
Temp
-10 -10 -10 -10 -10 -10 -9 -9 -10 -10 -10 -10 -10 -10 -10 -10 -10 -10 -10 -10 -10 -10 -10 -10 -10 -10 -10 -10 -10 -10 -10 -10 -10 -10 -10 -10 -10 -10 -10 -11 -11 -11 -11 -11 -11
-10 -10 -10 -10 -10 -10 -10 -10 -10 -10 -10 -10 -10 -10 -10 -10 -10 -10 -10 -10 -10 -10 -10 -10 -10 -10 -10 -10 -10 -10 -10 -10 -10 -10 -10 -10 -10 -10 -10 -11 -11 -11 -11 -11 -11
-11 -10 -10 -10 -10 -10 -10 -10 -10 -10 -10 -10 -10 -10 -10 -10 -10 -10 -10 -10 -10 -10 -10 -10 -10 -10 -10 -10 -10 -10 -10 -10 -10 -10 -10 -10 -10 -10 -10 -11 -10 -11 -11 -11 -11
-11 -11 -11 -10 -10 -10 -10 -10 -10 -10 -10 -10 -10 -10 -10 -10 -10 -10 -10 -10 -10 -10 -10 -10 -10 -10 -10 -10 -10 -10 -10 -10 -10 -10 -10 -10 -10 -10 -10 -10 -10 -11 -11 -11 -11
-11 -11 -11 -11 -11 -11 -10 -10 -10 -10 -10 -10 -10 -10 -10 -10 -10 -10 -10 -10 -10 -10 -10 -10 -10 -10 -10 -10 -10 -10 -10 -10 -10 -10 -10 -10 -10 -10 -10 -10 -11 -11 -10 -10 -10
-12 -11 -11 -11 -11 -11 -11 -11 -10 -10 -10 -10 -10 -10 -10 -10 -10 -10 -10 -10 -10 -10 -10 -10 -10 -10 -10 -10 -10 -10 -10 -10 -10 -10 -10 -10 -10 -10 -10 -10 -10 -10 -10 -10 -10
-12 -12 -11 -11 -11 -11 -11 -11 -11 -11 -11 -10 -10 -10 -10 -10 -10 -10 -10 -10 -10 -10 -10 -10 -10 -10 -10 -10 -10 -10 -10 -10 -10 -10 -10 -10 -10 -10 -10 -10 -10 -10 -10 -10 -10
-12 -12 -12 -11 -11 -11 -11 -11 -11 -11 -11 -11 -11 -10 -10 -11 -11 -11 -10 -10 -10 -10 -10 -10 -10 -10 -10 -10 -10 -11 -11 -11 -10 -10 -10 -10 -10 -10 -10 -10 -10 -10 -10 -10 -10
-13 -12 -12 -12 -12 -12 -11 -11 -11 -11 -11 -11 -11 -11 -11 -11 -11 -11 -11 -10 -10 -10 -10 -10 -10 -10 -10 -10 -11 -11 -10 -11 -11 -11 -11 -11 -11 -10 -10 -10 -10 -10 -10 -10 -10
-13 -13 -13 -12 -12 -12 -12 -12 -11 -11 -11 -11 -11 -11 -11 -11 -11 -11 -11 -11 -10 -10 -10 -10 -10 -10 -10 -11 -11 -10 -10 -11 -11 -11 -10 -10 -11 -10 -10 -10 -10 -10 -10 -10 -10
-13 -13 -13 -13 -12 -12 -12 -12 -12 -12 -11 -12 -11 -11 -11 -11 -11 -11 -11 -11 -11 -11 -11 -11 -11 -11 -11 -11 -10 -11 -10 -10 -10 -10 -10 -10 -10 -10 -10 -10 -10 -10 -10 -10 -10
-14 -14 -13 -13 -13 -13 -13 -12 -12 -12 -12 -12 -11 -11 -11 -12 -12 -12 -12 -11 -11 -11 -11 -11 -11 -11 -11 -11 -11 -11 -11 -11 -11 -10 -10 -10 -10 -10 -10 -10 -10 -10 -10 -10 -10
-15 -14 -14 -14 -13 -13 -13 -13 -13 -13 -12 -12 -12 -12 -12 -12 -12 -12 -12 -12 -12 -12 -12 -11 -11 -11 -11 -11 -11 -11 -11 -11 -11 -10 -10 -10 -9 -10 -10 -10 -10 -11 -11 -11 -11
-15 -15 -14 -14 -13 -14 -14 -14 -14 -13 -13 -11 -12 -11 -12 -12 -11 -12 -12 -12 -12 -12 -12 -11 -11 -12 -12 -11 -12 -11 -11 -11 -10 -10 -10 -10 -9 -9 -10 -10 -11 -11 -11 -11 -12
-14 -15 -15 -14 -14 -14 -15 -15 -14 -14 -13 -12 -11 -11 -12 -12 -11 -12 -12 -12 -12 -12 -12 -11 -11 -12 -12 -12 -12 -11 -11 -11 -11 -10 -10 -10 -10 -9 -11 -11 -11 -11 -12 -12 -12
-14 -15 -15 -14 -14 -14 -16 -16 -16 -15 -11 -11 -11 -11 -12 -12 -12 -12 -12 -12 -12 -12 -12 -12 -12 -12 -12 -12 -12 -11 -11 -11 -11 -11 -9 -10 -11 -9 -11 -11 -11 -12 -12 -12 -12
-15 -14 -14 -14 -13 -15 -15 -16 -16 -13 -11 -11 -11 -11 -12 -12 -12 -12 -13 -13 -13 -13 -13 -13 -13 -13 -12 -12 -12 -12 -12 -12 -11 -11 -10 -11 -11 -10 -11 -11 -12 -12 -12 -12 -12
-15 -14 -14 -14 -14 -15 -15 -15 -14 -10 -10 -11 -11 -12 -12 -12 -13 -14 -14 -13 -13 -13 -14 -14 -13 -13 -12 -13 -13 -12 -12 -12 -12 -11 -11 -11 -10 -11 -11 -11 -12 -12 -13 -13 -13
-15 -15 -14 -14 -14 -14 -15 -15 -10 -11 -11 -12 -12 -12 -12 -12 -13 -13 -14 -14 -14 -14 -14 -14 -13 -13 -13 -13 -13 -12 -12 -13 -13 -12 -11 -11 -11 -11 -11 -12 -12 -13 -13 -13 -13
-15 -15 -14 -14 -14 -14 -15 -13 -11 -12 -12 -12 -12 -13 -13 -13 -13 -13 -13 -13 -14 -14 -15 -14 -14 -13 -13 -13 -12 -12 -13 -13 -13 -12 -12 -11 -11 -11 -12 -12 -13 -13 -13 -13 -13
-15 -15 -14 -14 -14 -15 -15 -11 -12 -13 -12 -14 -13 -13 -13 -13 -13 -13 -13 -13 -14 -14 -15 -14 -14 -13 -13 -12 -13 -13 -13 -13 -14 -13 -13 -12 -12 -12 -13 -13 -13 -13 -14 -14 -14
-16 -15 -14 -15 -15 -15 -15 -11 -13 -13 -14 -14 -14 -13 -12 -13 -13 -13 -13 -13 -14 -14 -14 -15 -14 -14 -13 -13 -13 -13 -12 -13 -13 -13 -13 -13 -12 -13 -13 -13 -13 -14 -14 -15 -15
-16 -15 -15 -15 -15 -15 -14 -14 -14 -14 -14 -14 -13 -14 -14 -13 -14 -13 -13 -14 -14 -14 -14 -15 -14 -14 -13 -12 -12 -12 -13 -13 -14 -14 -13 -14 -12 -14 -13 -14 -14 -15 -15 -16 -16
-16 -15 -15 -15 -15 -15 -15 -15 -14 -14 -15 -14 -14 -15 -14 -14 -14 -13 -13 -14 -15 -14 -15 -15 -15 -14 -13 -13 -14 -14 -14 -14 -14 -14 -13 -12 -14 -14 -14 -15 -16 -16 -16 -16 -16
-16 -16 -15 -16 -15 -15 -15 -14 -15 -15 -14 -15 -14 -14 -14 -15 -14 -12 -14 -15 -14 -15 -14 -14 -14 -14 -13 -14 -14 -14 -13 -14 -14 -14 -14 -14 -14 -15 -16 -16 -16 -16 -16 -17 -17
-17 -17 -16 -16 -16 -15 -16 -15 -14 -14 -15 -14 -14 -14 -15 -15 -14 -14 -15 -14 -15 -14 -14 -14 -14 -14 -14 -14 -15 -14 -14 -14 -14 -14 -14 -14 -14 -15 -16 -16 -17 -17 -18 -18 -18
-17 -17 -17 -16 -16 -16 -15 -15 -14 -15 -15 -15 -15 -16 -15 -13 -15 -15 -15 -15 -14 -14 -14 -15 -14 -14 -14 -15 -15 -15 -13 -14 -14 -14 -15 -15 -15 -17 -17 -17 -18 -18 -18 -19 -19

GFSSW_500_temp_033.txt.gz
Temp
-10 -10 -10 -10 -10 -10 -10 -10 -10 -10 -10 -10 -10 -10 -10 -10 -10 -10 -10 -10 -10 -10 -10 -10 -10 -10 -10 -10 -10 -10 -10 -10 -10 -10 -10 -10 -10 -10 -10 -10 -11 -11 -11 -11 -11
-10 -10 -10 -10 -10 -10 -10 -10 -10 -10 -10 -10 -10 -10 -10 -10 -10 -10 -10 -10 -10 -10 -10 -10 -10 -10 -10 -10 -10 -10 -10 -10 -10 -10 -10 -10 -10 -10 -10 -11 -11 -11 -11 -11 -11
-10 -10 -10 -10 -10 -10 -10 -10 -10 -10 -10 -10 -10 -10 -10 -10 -10 -10 -10 -10 -10 -10 -10 -10 -10 -10 -10 -10 -10 -10 -10 -10 -10 -10 -10 -10 -10 -10 -10 -11 -11 -11 -11 -11 -11
-11 -11 -11 -11 -11 -11 -10 -10 -10 -10 -10 -10 -10 -10 -10 -10 -10 -10 -10 -10 -10 -10 -10 -10 -10 -10 -10 -10 -10 -10 -10 -10 -10 -10 -10 -10 -10 -10 -11 -11 -11 -11 -11 -11 -11
-11 -11 -11 -11 -11 -11 -11 -11 -10 -10 -10 -10 -10 -10 -10 -10 -10 -10 -10 -10 -10 -10 -10 -10 -10 -10 -10 -10 -10 -10 -10 -10 -10 -10 -10 -10 -10 -10 -11 -10 -10 -11 -11 -11 -11
-12 -12 -11 -11 -11 -11 -11 -11 -11 -11 -10 -10 -10 -10 -10 -10 -10 -10 -10 -10 -10 -10 -10 -10 -10 -10 -10 -10 -10 -10 -10 -10 -10 -10 -10 -11 -10 -10 -10 -10 -10 -10 -10 -10 -10
-12 -12 -12 -12 -11 -11 -11 -11 -11 -11 -11 -11 -10 -10 -10 -10 -10 -10 -10 -10 -10 -10 -10 -10 -10 -10 -10 -10 -10 -10 -10 -10 -10 -11 -10 -10 -10 -10 -10 -10 -10 -10 -10 -10 -10
-13 -13 -12 -12 -12 -12 -12 -11 -11 -11 -11 -11 -11 -11 -10 -10 -10 -10 -10 -10 -10 -10 -10 -10 -10 -10 -10 -10 -10 -10 -10 -10 -10 -11 -10 -10 -11 -10 -10 -10 -10 -10 -10 -10 -10
-13 -13 -13 -12 -12 -12 -12 -12 -12 -11 -11 -11 -11 -11 -10 -11 -11 -11 -11 -11 -10 -10 -10 -10 -10 -10 -10 -10 -10 -10 -10 -11 -11 -11 -11 -10 -10 -10 -10 -10 -10 -10 -10 -10 -10
-13 -13 -13 -13 -13 -12 -12 -12 -12 -12 -11 -11 -11 -11 -11 -11 -11 -11 -11 -11 -11 -11 -10 -10 -10 -10 -10 -11 -11 -11 -10 -11 -11 -11 -11 -11 -10 -10 -10 -10 -10 -10 -10 -10 -10
-14 -13 -13 -13 -13 -13 -13 -12 -12 -12 -12 -12 -11 -11 -11 -11 -11 -11 -11 -11 -11 -11 -11 -11 -11 -10 -11 -11 -11 -11 -11 -11 -11 -11 -11 -11 -10 -10 -10 -10 -10 -10 -10 -10 -10
-14 -14 -13 -13 -13 -13 -13 -13 -13 -12 -12 -12 -12 -11 -11 -11 -11 -11 -11 -11 -11 -11 -11 -11 -11 -11 -11 -11 -11 -11 -11 -11 -11 -11 -11 -10 -10 -10 -10 -10 -10 -10 -10 -10 -10
-15 -15 -14 -14 -13 -13 -13 -13 -13 -13 -12 -12 -12 -11 -11 -11 -11 -11 -12 -12 -12 -12 -12 -12 -11 -12 -12 -12 -12 -12 -11 -12 -11 -11 -11 -10 -9 -10 -10 -10 -10 -10 -10 -10 -10
-14 -15 -15 -14 -14 -14 -13 -15 -14 -14 -13 -12 -12 -11 -11 -12 -11 -11 -12 -12 -12 -12 -12 -12 -12 -12 -12 -12 -12 -12 -12 -12 -12 -11 -11 -10 -9 -9 -10 -11 -10 -10 -10 -10 -10
-15 -15 -14 -15 -14 -14 -15 -15 -15 -15 -14 -12 -11 -11 -12 -12 -12 -12 -12 -12 -12 -12 -12 -12 -12 -12 -12 -12 -12 -12 -12 -12 -12 -12 -11 -11 -10 -9 -10 -10 -11 -10 -10 -10 -11
-15 -15 -15 -14 -14 -15 -15 -15 -16 -16 -12 -11 -11 -11 -12 -12 -12 -12 -12 -12 -12 -12 -12 -12 -12 -12 -12 -13 -13 -12 -12 -12 -12 -12 -11 -11 -11 -9 -9 -11 -11 -11 -11 -11 -11
-15 -15 -14 -15 -15 -15 -14 -15 -15 -15 -11 -11 -11 -11 -12 -12 -12 -12 -12 -12 -12 -12 -12 -13 -12 -13 -13 -13 -13 -13 -13 -13 -12 -11 -11 -11 -10 -9 -10 -11 -11 -11 -11 -11 -12
-15 -15 -15 -16 -15 -15 -15 -15 -15 -10 -11 -11 -12 -11 -11 -12 -12 -12 -13 -13 -13 -13 -13 -13 -13 -13 -13 -13 -13 -13 -13 -13 -13 -12 -11 -11 -10 -10 -11 -11 -11 -12 -12 -12 -12
-16 -16 -15 -15 -15 -15 -15 -14 -13 -9 -13 -12 -12 -12 -11 -12 -12 -12 -13 -13 -13 -13 -13 -13 -13 -13 -14 -14 -14 -13 -13 -14 -13 -13 -12 -11 -10 -10 -11 -11 -12 -12 -12 -12 -13
-17 -16 -16 -15 -15 -15 -16 -15 -12 -12 -14 -14 -12 -13 -12 -12 -13 -13 -13 -12 -13 -14 -14 -14 -14 -14 -14 -14 -13 -13 -13 -14 -13 -13 -12 -11 -11 -10 -11 -12 -12 -12 -13 -13 -13
-17 -17 -15 -15 -16 -15 -15 -14 -12 -13 -14 -15 -13 -13 -13 -13 -13 -13 -13 -13 -13 -14 -15 -14 -14 -14 -13 -13 -14 -14 -13 -14 -14 -13 -13 -12 -11 -10 -11 -11 -12 -12 -13 -13 -13
-17 -16 -15 -16 -15 -15 -15 -12 -13 -13 -14 -14 -14 -13 -13 -15 -14 -14 -13 -13 -14 -14 -14 -15 -15 -14 -13 -13 -14 -13 -13 -13 -13 -12 -13 -13 -10 -12 -11 -12 -12 -13 -13 -13 -13
-18 -17 -17 -16 -16 -16 -15 -14 -14 -14 -13 -13 -13 -13 -15 -15 -14 -14 -13 -13 -14 -14 -15 -15 -15 -15 -14 -12 -12 -12 -13 -14 -14 -14 -12 -13 -10 -12 -12 -13 -13 -13 -13 -14 -13
-19 -18 -17 -17 -16 -16 -15 -15 -15 -14 -14 -14 -13 -15 -15 -15 -14 -14 -14 -14 -14 -15 -15 -15 -15 -14 -13 -14 -14 -13 -14 -14 -14 -14 -11 -11 -12 -13 -13 -13 -14 -14 -14 -14 -14
-20 -19 -18 -17 -16 -16 -16 -15 -15 -15 -14 -15 -15 -15 -14 -15 -15 -13 -14 -14 -14 -15 -15 -15 -15 -14 -13 -14 -15 -14 -14 -14 -14 -12 -14 -11 -13 -14 -14 -14 -14 -14 -14 -14 -15
-20 -18 -18 -17 -17 -16 -16 -15 -15 -15 -15 -14 -14 -13 -16 -15 -14 -14 -15 -15 -15 -15 -15 -15 -14 -15 -14 -14 -15 -14 -14 -13 -12 -13 -13 -12 -12 -14 -14 -15 -15 -15 -15 -15 -15
-20 -19 -18 -17 -17 -17 -17 -15 -15 -15 -16 -15 -15 -16 -16 -14 -15 -16 -16 -15 -15 -15 -15 -15 -15 -15 -14 -15 -15 -15 -11 -14 -13 -13 -14 -14 -12 -15 -15 -15 -15 -15 -15 -15 -15

GFSSW_500_temp_036.txt.gz
Temp
-10 -10 -10 -10 -10 -10 -10 -10 -10 -10 -10 -10 -10 -10 -10 -10 -10 -10 -10 -10 -10 -10 -10 -10 -10 -10 -10 -10 -10 -10 -10 -10 -10 -10 -10 -10 -10 -10 -10 -11 -11 -10 -10 -11 -10
-10 -10 -10 -10 -10 -10 -10 -10 -10 -10 -10 -10 -10 -10 -10 -10 -10 -10 -10 -10 -10 -10 -10 -10 -10 -10 -10 -10 -10 -10 -10 -10 -10 -10 -10 -10 -10 -10 -10 -10 -11 -11 -11 -10 -11
-10 -10 -10 -10 -10 -10 -10 -10 -10 -10 -10 -10 -10 -10 -10 -10 -10 -10 -10 -10 -10 -10 -10 -10 -10 -10 -10 -10 -10 -10 -10 -10 -10 -10 -10 -10 -10 -10 -10 -10 -10 -10 -10 -11 -10
-11 -10 -10 -10 -10 -10 -10 -10 -10 -10 -10 -10 -10 -10 -10 -10 -10 -10 -10 -10 -10 -10 -10 -10 -10 -10 -10 -10 -10 -10 -10 -10 -10 -10 -10 -10 -10 -10 -10 -11 -11 -10 -11 -11 -11
-11 -11 -11 -11 -11 -11 -11 -11 -11 -11 -10 -10 -10 -10 -10 -10 -10 -10 -10 -10 -10 -10 -10 -10 -10 -10 -10 -10 -10 -10 -10 -10 -10 -10 -10 -10 -10 -10 -10 -11 -11 -10 -11 -11 -11
-12 -12 -11 -11 -11 -11 -11 -11 -11 -11 -11 -10 -10 -10 -10 -10 -10 -10 -10 -10 -10 -10 -10 -10 -10 -10 -10 -10 -10 -10 -10 -10 -10 -10 -10 -10 -10 -10 -11 -11 -10 -10 -11 -10 -10
-12 -12 -12 -12 -11 -11 -11 -11 -11 -11 -11 -11 -11 -10 -10 -10 -10 -10 -10 -10 -10 -10 -10 -10 -10 -10 -10 -10 -10 -10 -10 -10 -10 -10 -10 -11 -10 -11 -10 -11 -10 -10 -10 -10 -10
-13 -13 -12 -12 -12 -12 -12 -11 -11 -11 -11 -11 -11 -11 -11 -11 -11 -10 -10 -10 -10 -10 -10 -10 -10 -10 -10 -11 -10 -10 -10 -10 -10 -10 -10 -11 -11 -10 -10 -10 -10 -10 -10 -10 -10
-13 -13 -13 -13 -12 -12 -12 -12 -12 -11 -11 -11 -11 -11 -11 -11 -11 -11 -11 -11 -11 -10 -10 -10 -10 -10 -10 -10 -10 -11 -11 -10 -10 -10 -11 -11 -11 -10 -11 -10 -10 -10 -10 -10 -10
-14 -13 -13 -13 -13 -12 -13 -12 -12 -12 -12 -12 -11 -11 -11 -11 -11 -11 -11 -11 -11 -11 -10 -10 -10 -10 -10 -11 -11 -11 -10 -10 -10 -11 -11 -11 -11 -10 -10 -10 -10 -10 -10 -10 -10
-14 -14 -14 -13 -13 -13 -12 -12 -12 -12 -12 -12 -11 -11 -11 -11 -11 -11 -11 -11 -11 -11 -11 -11 -10 -10 -11 -11 -11 -11 -11 -11 -11 -11 -11 -11 -10 -11 -10 -10 -10 -10 -10 -10 -10
-14 -14 -14 -14 -13 -13 -13 -13 -12 -12 -12 -12 -12 -11 -11 -11 -11 -11 -11 -11 -11 -11 -11 -11 -11 -11 -11 -11 -11 -11 -11 -11 -12 -11 -11 -11 -11 -10 -10 -10 -10 -10 -10 -10 -10
-15 -14 -14 -14 -14 -13 -13 -13 -13 -13 -12 -12 -12 -11 -11 -11 -11 -11 -11 -11 -11 -11 -11 -11 -11 -11 -11 -11 -12 -12 -12 -12 -12 -12 -11 -11 -10 -10 -10 -10 -10 -10 -11 -10 -10
-15 -15 -15 -14 -14 -13 -13 -14 -14 -14 -13 -11 -11 -11 -11 -11 -11 -11 -12 -11 -11 -11 -12 -11 -12 -12 -12 -12 -13 -12 -12 -12 -12 -12 -11 -11 -10 -10 -10 -11 -10 -10 -10 -10 -10
-16 -15 -15 -15 -15 -14 -14 -15 -15 -15 -14 -12 -11 -11 -11 -12 -11 -11 -12 -12 -11 -12 -12 -11 -12 -12 -12 -12 -13 -12 -13 -13 -12 -12 -11 -11 -10 -9 -10 -10 -10 -10 -11 -10 -10
-15 -16 -15 -15 -15 -15 -15 -15 -15 -15 -13 -12 -11 -11 -11 -12 -12 -12 -12 -12 -12 -12 -12 -12 -12 -12 -12 -12 -13 -13 -13 -13 -13 -12 -11 -11 -11 -9 -10 -10 -10 -10 -10 -10 -11
-16 -16 -15 -15 -15 -15 -15 -15 -15 -15 -12 -12 -11 -12 -12 -12 -12 -12 -12 -12 -12 -12 -12 -12 -12 -12 -12 -13 -13 -13 -13 -13 -13 -12 -11 -12 -11 -10 -10 -10 -11 -10 -11 -11 -11
-16 -16 -16 -15 -16 -15 -15 -15 -14 -13 -13 -12 -13 -13 -12 -12 -12 -12 -12 -12 -12 -13 -12 -12 -12 -12 -12 -13 -14 -13 -14 -14 -13 -13 -12 -11 -10 -10 -10 -11 -11 -11 -11 -11 -11
-17 -17 -17 -16 -16 -15 -15 -14 -14 -12 -12 -13 -14 -14 -14 -13 -13 -13 -12 -12 -13 -13 -14 -14 -13 -13 -13 -14 -14 -13 -13 -14 -14 -13 -12 -11 -10 -10 -10 -11 -11 -11 -12 -12 -12
-18 -17 -17 -16 -16 -17 -16 -15 -14 -13 -14 -14 -15 -14 -14 -14 -14 -13 -13 -12 -13 -14 -14 -15 -14 -13 -14 -14 -14 -14 -14 -14 -14 -14 -13 -11 -10 -10 -10 -11 -11 -12 -12 -13 -13
-19 -19 -17 -16 -17 -17 -17 -15 -13 -14 -15 -15 -14 -14 -14 -14 -14 -13 -12 -12 -13 -14 -15 -15 -14 -13 -14 -13 -14 -14 -14 -15 -15 -14 -13 -12 -10 -10 -10 -11 -11 -12 -13 -13 -13
-19 -19 -17 -17 -18 -17 -16 -14 -14 -14 -15 -15 -15 -15 -14 -14 -14 -13 -11 -12 -14 -14 -15 -15 -15 -14 -14 -14 -14 -14 -14 -14 -14 -14 -13 -13 -9 -11 -11 -11 -12 -12 -13 -13 -13
-20 -19 -18 -18 -18 -18 -16 -15 -15 -15 -15 -15 -15 -14 -15 -15 -15 -13 -12 -13 -13 -14 -14 -15 -15 -15 -14 -14 -13 -14 -14 -15 -15 -14 -11 -13 -9 -11 -12 -12 -13 -13 -14 -14 -14
-21 -20 -19 -19 -18 -18 -17 -16 -16 -14 -15 -15 -15 -15 -15 -15 -14 -13 -13 -12 -13 -14 -15 -15 -15 -14 -14 -14 -15 -14 -15 -15 -15 -13 -12 -11 -12 -12 -13 -13 -13 -13 -14 -13 -13
-21 -20 -20 -19 -17 -18 -18 -17 -16 -16 -15 -16 -15 -16 -15 -15 -15 -13 -14 -14 -13 -14 -15 -15 -15 -15 -14 -15 -15 -15 -14 -14 -14 -13 -14 -10 -12 -13 -13 -13 -13 -13 -13 -13 -14
-21 -21 -20 -19 -18 -18 -17 -17 -17 -17 -16 -15 -16 -15 -15 -15 -14 -14 -15 -15 -15 -15 -15 -15 -15 -15 -15 -15 -15 -16 -15 -12 -13 -13 -14 -12 -11 -14 -14 -14 -14 -14 -14 -14 -14
-22 -21 -21 -20 -19 -19 -18 -17 -17 -17 -17 -17 -17 -16 -16 -15 -14 -16 -16 -16 -16 -16 -16 -16 -15 -15 -15 -15 -16 -16 -10 -14 -14 -13 -14 -14 -11 -14 -14 -14 -14 -14 -14 -14 -15

GFSSW_500_temp_042.txt.gz
Temp
-11 -11 -10 -10 -10 -10 -10 -10 -10 -10 -10 -10 -10 -10 -10 -10 -10 -10 -10 -10 -10 -10 -10 -10 -10 -10 -10 -10 -10 -10 -10 -10 -10 -10 -10 -10 -10 -10 -10 -10 -10 -11 -11 -11 -11
-11 -11 -11 -10 -10 -10 -10 -10 -10 -10 -10 -10 -10 -10 -10 -10 -10 -10 -10 -10 -10 -10 -10 -10 -10 -10 -10 -10 -10 -10 -10 -10 -10 -10 -10 -10 -10 -10 -10 -10 -10 -11 -11 -11 -11
-11 -11 -11 -10 -10 -10 -10 -10 -10 -10 -10 -10 -10 -10 -10 -10 -10 -10 -10 -10 -10 -10 -10 -10 -10 -10 -10 -10 -10 -10 -10 -10 -10 -10 -10 -10 -10 -10 -10 -10 -11 -11 -11 -11 -11
-12 -11 -11 -11 -10 -10 -10 -10 -10 -10 -10 -10 -10 -10 -10 -10 -10 -10 -10 -10 -10 -10 -10 -10 -10 -10 -10 -10 -10 -10 -10 -10 -10 -10 -10 -10 -10 -10 -10 -10 -11 -10 -11 -11 -11
-13 -12 -12 -11 -11 -11 -11 -10 -10 -10 -10 -10 -10 -10 -10 -10 -10 -10 -10 -10 -10 -10 -10 -10 -10 -10 -10 -10 -10 -10 -10 -10 -10 -10 -10 -10 -10 -10 -10 -10 -11 -11 -11 -11 -11
-13 -13 -13 -12 -12 -11 -11 -11 -11 -10 -10 -10 -10 -10 -10 -10 -10 -10 -10 -10 -10 -10 -10 -10 -10 -10 -10 -10 -10 -10 -10 -10 -10 -10 -10 -10 -10 -10 -10 -10 -10 -11 -11 -11 -11
-14 -14 -13 -13 -12 -12 -12 -11 -11 -11 -11 -11 -11 -11 -11 -11 -10 -10 -10 -10 -10 -10 -10 -10 -10 -10 -10 -10 -10 -10 -10 -10 -10 -10 -10 -10 -10 -10 -10 -11 -10 -11 -11 -11 -11
-14 -14 -14 -14 -13 -13 -12 -12 -12 -11 -11 -11 -11 -11 -11 -11 -11 -11 -10 -10 -10 -10 -10 -10 -10 -10 -10 -10 -10 -10 -10 -10 -10 -10 -10 -10 -10 -10 -10 -10 -10 -10 -10 -10 -11
-15 -14 -14 -14 -14 -14 -13 -12 -12 -12 -11 -11 -11 -11 -11 -11 -11 -11 -11 -11 -11 -11 -11 -11 -10 -10 -10 -10 -10 -10 -10 -10 -10 -10 -10 -10 -10 -10 -10 -10 -10 -10 -10 -10 -11
-15 -15 -14 -14 -14 -14 -14 -13 -13 -12 -12 -12 -11 -11 -11 -11 -11 -11 -11 -11 -11 -11 -11 -11 -11 -11 -11 -11 -11 -10 -10 -10 -10 -10 -10 -10 -10 -10 -10 -10 -10 -10 -10 -11 -11
-16 -15 -15 -14 -14 -14 -14 -14 -13 -13 -12 -12 -11 -11 -11 -11 -11 -11 -11 -11 -11 -11 -11 -11 -11 -11 -11 -11 -11 -10 -10 -10 -11 -10 -10 -10 -10 -11 -10 -10 -10 -10 -11 -11 -11
-15 -15 -15 -15 -15 -14 -14 -14 -14 -13 -13 -12 -12 -11 -11 -11 -11 -11 -11 -11 -11 -11 -11 -11 -11 -11 -11 -11 -11 -11 -11 -11 -11 -11 -10 -10 -10 -10 -11 -10 -10 -10 -10 -11 -11
-16 -16 -16 -15 -15 -15 -14 -14 -14 -14 -13 -13 -12 -11 -12 -11 -11 -11 -11 -11 -11 -11 -11 -11 -11 -11 -11 -11 -11 -11 -11 -11 -11 -11 -10 -10 -9 -9 -10 -10 -11 -10 -11 -10 -11
-16 -16 -16 -16 -15 -15 -15 -15 -15 -14 -14 -12 -13 -12 -12 -12 -11 -11 -11 -11 -11 -11 -12 -11 -11 -11 -12 -11 -12 -11 -12 -11 -11 -11 -11 -11 -9 -9 -10 -10 -10 -11 -10 -10 -10
-16 -17 -16 -16 -15 -15 -16 -16 -15 -15 -14 -13 -12 -12 -12 -12 -11 -12 -12 -12 -12 -12 -12 -11 -12 -12 -12 -12 -12 -11 -12 -12 -12 -11 -11 -10 -10 -8 -9 -10 -11 -11 -11 -11 -11
-16 -16 -16 -17 -16 -16 -16 -15 -16 -15 -14 -13 -12 -12 -12 -12 -12 -12 -12 -12 -12 -12 -12 -12 -12 -12 -12 -12 -12 -12 -12 -12 -12 -12 -11 -11 -11 -8 -9 -10 -11 -11 -11 -11 -11
-16 -16 -16 -16 -16 -16 -17 -16 -16 -15 -14 -13 -12 -12 -12 -13 -13 -13 -13 -12 -13 -13 -12 -12 -12 -12 -12 -12 -12 -12 -13 -13 -12 -12 -11 -11 -11 -9 -10 -10 -10 -11 -11 -11 -11
-17 -17 -17 -16 -16 -16 -16 -17 -16 -14 -14 -13 -13 -12 -13 -13 -13 -13 -13 -13 -13 -13 -13 -13 -12 -13 -13 -13 -13 -13 -13 -13 -13 -12 -12 -11 -9 -9 -10 -11 -11 -11 -11 -11 -11
-18 -18 -17 -16 -16 -17 -17 -17 -17 -15 -15 -15 -15 -15 -15 -14 -14 -14 -13 -13 -13 -13 -14 -14 -14 -14 -13 -14 -14 -13 -14 -14 -13 -13 -12 -10 -9 -10 -10 -11 -11 -11 -11 -11 -11
-19 -19 -17 -17 -17 -18 -19 -17 -16 -16 -16 -16 -16 -15 -16 -15 -15 -14 -14 -13 -13 -14 -15 -15 -14 -13 -13 -14 -13 -14 -14 -14 -14 -13 -12 -11 -10 -9 -10 -10 -12 -12 -11 -11 -11
-19 -19 -18 -18 -19 -19 -19 -17 -16 -16 -16 -16 -15 -16 -15 -15 -16 -15 -14 -14 -14 -15 -15 -15 -15 -14 -14 -13 -14 -14 -14 -14 -15 -14 -13 -11 -9 -10 -11 -11 -12 -12 -12 -12 -12
-21 -20 -19 -20 -20 -20 -19 -18 -16 -16 -16 -16 -16 -16 -15 -16 -16 -16 -15 -14 -15 -16 -15 -15 -15 -14 -14 -14 -14 -14 -13 -14 -14 -14 -13 -12 -9 -10 -11 -11 -12 -12 -13 -12 -12
-22 -20 -20 -21 -21 -20 -20 -19 -17 -16 -16 -16 -16 -16 -16 -16 -16 -15 -15 -15 -15 -15 -15 -16 -15 -15 -14 -13 -13 -13 -13 -13 -14 -14 -13 -13 -8 -10 -11 -12 -13 -13 -13 -12 -12
-22 -22 -21 -22 -21 -20 -20 -19 -19 -17 -17 -16 -15 -16 -17 -17 -16 -15 -15 -15 -16 -16 -16 -16 -16 -15 -14 -14 -14 -14 -14 -14 -15 -15 -12 -12 -10 -11 -11 -13 -14 -14 -13 -13 -12
-23 -22 -22 -22 -21 -21 -20 -20 -19 -19 -18 -17 -17 -17 -16 -16 -17 -16 -15 -15 -16 -16 -16 -16 -16 -16 -15 -15 -15 -15 -14 -15 -14 -12 -15 -10 -13 -10 -12 -13 -14 -14 -14 -13 -13
-23 -22 -22 -22 -22 -22 -21 -19 -19 -19 -19 -18 -18 -16 -16 -17 -16 -16 -16 -16 -16 -17 -17 -16 -16 -16 -15 -15 -15 -16 -15 -13 -13 -13 -14 -11 -11 -12 -13 -14 -14 -14 -14 -14 -13
-25 -23 -23 -22 -23 -23 -22 -21 -20 -19 -20 -19 -18 -18 -17 -17 -16 -17 -18 -17 -17 -17 -17 -17 -17 -16 -16 -16 -16 -16 -12 -14 -14 -14 -14 -13 -10 -14 -13 -14 -15 -15 -14 -14 -13

GFSSW_500_temp_045.txt.gz
Temp
-11 -11 -11 -11 -11 -11 -11 -10 -10 -10 -10 -10 -10 -10 -10 -10 -10 -10 -10 -10 -10 -10 -10 -10 -10 -10 -10 -10 -10 -10 -10 -10 -10 -10 -10 -10 -10 -10 -10 -10 -10 -11 -11 -11 -11
-12 -11 -11 -11 -11 -11 -11 -10 -10 -10 -10 -10 -10 -10 -10 -10 -10 -10 -10 -10 -10 -10 -10 -10 -10 -10 -10 -10 -10 -10 -10 -10 -10 -10 -10 -10 -10 -10 -10 -10 -10 -10 -11 -11 -11
-12 -11 -11 -11 -11 -11 -10 -10 -10 -10 -10 -10 -10 -10 -10 -10 -10 -10 -10 -10 -10 -10 -10 -10 -10 -10 -10 -10 -10 -10 -10 -10 -10 -10 -10 -10 -10 -10 -10 -10 -10 -10 -10 -11 -11
-12 -12 -11 -11 -11 -11 -11 -11 -10 -10 -10 -10 -10 -10 -10 -10 -10 -10 -10 -10 -11 -11 -11 -10 -10 -10 -10 -10 -10 -10 -10 -10 -10 -10 -10 -10 -10 -10 -10 -10 -10 -10 -10 -11 -11
-13 -12 -12 -12 -11 -11 -11 -11 -11 -11 -11 -11 -10 -10 -10 -10 -10 -10 -10 -11 -11 -11 -11 -10 -10 -10 -10 -10 -10 -10 -10 -10 -10 -10 -10 -10 -10 -10 -10 -10 -10 -10 -11 -11 -11
-14 -13 -12 -12 -12 -11 -11 -11 -11 -11 -11 -11 -11 -11 -10 -11 -11 -11 -11 -11 -11 -11 -10 -10 -10 -11 -11 -10 -10 -10 -10 -10 -10 -10 -10 -10 -10 -10 -10 -10 -10 -11 -11 -11 -11
-15 -14 -13 -13 -12 -12 -12 -11 -11 -11 -11 -11 -11 -11 -11 -11 -11 -11 -11 -11 -11 -10 -10 -10 -10 -11 -11 -11 -11 -10 -10 -11 -11 -10 -10 -10 -10 -10 -10 -10 -10 -10 -10 -11 -11
-15 -15 -15 -14 -13 -13 -12 -12 -12 -11 -11 -11 -11 -11 -11 -11 -11 -11 -11 -11 -11 -11 -11 -10 -10 -11 -11 -11 -11 -10 -11 -11 -10 -10 -10 -10 -10 -10 -10 -10 -10 -10 -10 -10 -11
-15 -15 -15 -15 -14 -14 -13 -13 -12 -12 -12 -11 -11 -11 -11 -11 -11 -11 -11 -11 -11 -11 -11 -11 -11 -11 -11 -11 -11 -11 -10 -10 -10 -10 -10 -10 -10 -10 -10 -10 -10 -10 -10 -10 -11
-15 -15 -15 -15 -15 -15 -14 -13 -13 -12 -12 -12 -12 -11 -11 -12 -11 -11 -11 -11 -11 -11 -11 -11 -11 -11 -11 -11 -11 -10 -10 -10 -11 -10 -10 -10 -10 -10 -10 -10 -10 -10 -10 -11 -11
-16 -16 -16 -15 -15 -15 -15 -15 -14 -13 -13 -12 -12 -11 -12 -12 -12 -11 -11 -11 -11 -11 -11 -11 -11 -11 -11 -11 -11 -11 -11 -10 -11 -11 -10 -10 -10 -10 -10 -10 -10 -10 -10 -11 -11
-16 -16 -16 -16 -15 -15 -15 -15 -15 -14 -13 -13 -12 -12 -12 -12 -12 -11 -11 -11 -11 -11 -11 -11 -11 -11 -11 -11 -11 -11 -11 -11 -11 -11 -10 -10 -10 -10 -10 -10 -10 -11 -11 -11 -11
-17 -16 -16 -15 -15 -15 -15 -15 -15 -15 -13 -13 -13 -12 -12 -12 -12 -12 -11 -11 -11 -11 -11 -11 -11 -11 -11 -11 -11 -11 -11 -11 -11 -11 -10 -10 -10 -10 -10 -10 -11 -11 -11 -11 -11
-17 -17 -16 -16 -15 -15 -15 -15 -15 -14 -14 -13 -14 -13 -13 -12 -12 -12 -12 -12 -11 -11 -12 -11 -11 -11 -12 -11 -12 -11 -12 -11 -11 -11 -11 -11 -9 -9 -10 -10 -11 -11 -11 -11 -10
-16 -16 -16 -16 -15 -16 -16 -16 -15 -15 -15 -14 -13 -13 -13 -13 -12 -12 -12 -12 -12 -12 -12 -11 -12 -12 -12 -12 -12 -11 -12 -12 -12 -11 -11 -11 -11 -9 -10 -10 -11 -12 -11 -11 -10
-16 -16 -17 -17 -16 -16 -16 -16 -16 -16 -15 -14 -13 -13 -13 -13 -12 -12 -13 -13 -13 -13 -12 -12 -12 -12 -12 -12 -12 -12 -12 -12 -12 -12 -11 -10 -11 -8 -9 -10 -10 -11 -12 -11 -11
-17 -16 -16 -16 -16 -16 -17 -16 -15 -16 -15 -14 -13 -13 -13 -13 -13 -13 -13 -13 -13 -13 -12 -12 -12 -12 -13 -12 -12 -12 -12 -12 -12 -12 -11 -11 -11 -9 -10 -10 -10 -11 -12 -11 -11
-17 -17 -17 -16 -16 -17 -18 -16 -16 -16 -16 -15 -14 -14 -13 -13 -13 -13 -13 -13 -13 -13 -13 -13 -13 -13 -12 -13 -13 -13 -13 -13 -13 -12 -11 -11 -9 -8 -10 -11 -11 -11 -11 -11 -11
-18 -18 -17 -17 -17 -17 -18 -18 -18 -16 -16 -16 -16 -15 -14 -14 -14 -14 -14 -14 -13 -13 -13 -13 -13 -13 -13 -13 -14 -13 -13 -13 -14 -13 -12 -10 -9 -9 -10 -11 -11 -11 -11 -12 -12
-19 -19 -18 -18 -18 -18 -19 -18 -17 -17 -16 -16 -17 -16 -16 -15 -15 -14 -14 -13 -13 -14 -14 -14 -14 -13 -13 -13 -13 -13 -13 -14 -13 -13 -12 -10 -9 -9 -10 -10 -11 -12 -12 -12 -12
-20 -19 -19 -19 -19 -19 -19 -18 -16 -16 -16 -16 -16 -16 -16 -16 -16 -16 -15 -14 -15 -15 -16 -16 -15 -13 -13 -13 -13 -14 -14 -14 -14 -14 -13 -11 -9 -9 -10 -10 -11 -12 -12 -12 -12
-21 -20 -20 -21 -21 -20 -20 -18 -16 -16 -16 -16 -16 -16 -16 -16 -16 -16 -16 -15 -15 -16 -16 -16 -16 -15 -14 -14 -14 -14 -14 -14 -14 -14 -13 -12 -9 -10 -11 -11 -11 -12 -12 -12 -12
-21 -20 -20 -21 -22 -21 -19 -19 -18 -17 -17 -17 -16 -16 -16 -16 -16 -16 -16 -15 -16 -16 -16 -16 -16 -15 -14 -14 -14 -14 -14 -14 -15 -14 -13 -13 -9 -9 -11 -11 -12 -12 -13 -13 -12
-22 -21 -21 -21 -21 -21 -21 -20 -20 -19 -18 -18 -17 -17 -17 -17 -16 -16 -16 -16 -16 -17 -17 -17 -16 -15 -14 -14 -15 -15 -15 -15 -15 -15 -11 -13 -9 -10 -10 -12 -12 -13 -14 -13 -13
-23 -22 -21 -21 -21 -21 -21 -21 -21 -20 -20 -19 -18 -18 -17 -16 -16 -15 -16 -15 -16 -16 -17 -17 -16 -16 -16 -16 -16 -15 -15 -15 -15 -12 -15 -10 -13 -10 -12 -12 -13 -13 -14 -14 -14
-23 -23 -22 -22 -22 -22 -22 -22 -21 -21 -21 -20 -19 -18 -18 -17 -17 -15 -15 -16 -17 -17 -17 -17 -16 -17 -16 -16 -16 -16 -16 -15 -14 -13 -14 -12 -12 -12 -12 -13 -13 -14 -14 -14 -14
-24 -23 -23 -22 -22 -22 -22 -21 -21 -21 -21 -21 -20 -20 -19 -18 -17 -17 -18 -19 -18 -18 -18 -17 -17 -17 -17 -16 -17 -17 -14 -14 -15 -14 -14 -14 -11 -14 -13 -14 -14 -14 -13 -13 -13

GFSSW_500_temp_048.txt.gz
Temp
-12 -12 -11 -11 -11 -11 -11 -11 -11 -11 -11 -10 -11 -10 -10 -10 -10 -10 -10 -10 -10 -10 -10 -10 -10 -10 -10 -10 -10 -10 -10 -10 -10 -10 -10 -10 -10 -10 -10 -10 -10 -10 -10 -11 -11
-12 -12 -12 -11 -11 -11 -11 -11 -11 -11 -11 -11 -11 -11 -11 -11 -11 -10 -10 -10 -10 -10 -11 -10 -10 -10 -10 -10 -10 -10 -10 -10 -10 -10 -10 -10 -10 -10 -10 -10 -10 -10 -10 -11 -11
-12 -12 -12 -12 -11 -11 -11 -11 -11 -11 -11 -11 -11 -11 -11 -11 -11 -11 -10 -10 -11 -11 -11 -11 -11 -11 -10 -10 -10 -10 -10 -10 -10 -10 -10 -10 -10 -10 -10 -10 -10 -10 -10 -10 -11
-13 -12 -12 -12 -12 -12 -11 -11 -11 -11 -11 -11 -11 -11 -11 -11 -11 -11 -11 -11 -11 -11 -11 -11 -11 -11 -11 -10 -10 -10 -10 -10 -10 -10 -10 -10 -10 -10 -10 -10 -10 -10 -10 -11 -11
-13 -13 -12 -12 -12 -12 -12 -11 -11 -11 -11 -11 -11 -11 -11 -11 -11 -11 -11 -11 -11 -11 -11 -11 -11 -11 -11 -11 -10 -10 -10 -10 -10 -10 -10 -10 -10 -10 -10 -10 -10 -10 -11 -11 -11
-14 -13 -13 -13 -13 -12 -12 -11 -11 -11 -11 -11 -11 -11 -11 -11 -11 -11 -11 -11 -11 -11 -11 -11 -11 -11 -11 -11 -11 -11 -10 -10 -11 -10 -10 -10 -10 -10 -10 -10 -10 -10 -10 -11 -11
-14 -14 -14 -13 -13 -12 -12 -12 -11 -11 -11 -11 -11 -11 -11 -11 -11 -11 -11 -11 -11 -11 -11 -11 -11 -11 -11 -11 -11 -11 -11 -11 -11 -11 -10 -10 -10 -11 -10 -10 -10 -10 -10 -10 -10
-15 -14 -14 -14 -13 -13 -12 -12 -12 -12 -12 -11 -11 -11 -11 -11 -11 -11 -11 -11 -11 -11 -11 -11 -11 -11 -11 -11 -11 -11 -11 -11 -11 -10 -10 -10 -10 -10 -10 -10 -10 -10 -10 -10 -10
-15 -15 -15 -14 -14 -13 -13 -13 -12 -12 -12 -12 -12 -11 -11 -11 -11 -11 -11 -11 -11 -11 -11 -11 -11 -11 -11 -11 -11 -11 -11 -11 -11 -11 -10 -10 -10 -11 -10 -10 -10 -10 -10 -10 -11
-16 -15 -15 -15 -15 -14 -14 -14 -13 -13 -12 -12 -12 -11 -11 -12 -11 -11 -11 -11 -11 -11 -11 -11 -11 -11 -11 -11 -11 -11 -11 -11 -11 -11 -11 -10 -10 -10 -10 -10 -10 -10 -10 -10 -10
-17 -16 -15 -15 -15 -15 -15 -15 -14 -13 -13 -13 -12 -12 -12 -12 -11 -11 -11 -11 -11 -11 -11 -11 -11 -11 -11 -11 -11 -11 -11 -11 -11 -11 -10 -10 -10 -10 -10 -10 -10 -10 -10 -10 -11
-16 -16 -17 -16 -15 -15 -15 -15 -15 -14 -14 -13 -13 -13 -12 -12 -12 -12 -12 -11 -11 -11 -11 -11 -11 -12 -11 -11 -11 -11 -11 -11 -11 -11 -10 -10 -10 -10 -10 -10 -10 -10 -11 -11 -10
-17 -16 -16 -17 -16 -16 -16 -15 -15 -15 -14 -14 -14 -13 -13 -13 -12 -12 -12 -12 -12 -11 -11 -11 -11 -12 -11 -11 -11 -11 -11 -11 -11 -11 -10 -10 -10 -10 -10 -10 -10 -11 -11 -11 -10
-17 -16 -17 -16 -17 -16 -16 -16 -16 -15 -15 -14 -14 -13 -13 -13 -12 -12 -12 -12 -12 -12 -12 -11 -11 -12 -12 -11 -12 -11 -12 -11 -11 -11 -11 -10 -10 -10 -10 -10 -10 -11 -11 -11 -11
-18 -18 -18 -17 -16 -16 -16 -16 -16 -15 -16 -14 -14 -13 -13 -14 -12 -13 -13 -13 -12 -12 -13 -12 -12 -12 -12 -12 -12 -12 -12 -12 -12 -12 -11 -10 -11 -9 -9 -10 -10 -11 -11 -11 -11
-17 -18 -18 -17 -17 -17 -17 -16 -16 -16 -16 -14 -13 -13 -14 -13 -13 -13 -14 -13 -13 -13 -13 -12 -12 -12 -12 -12 -13 -12 -12 -12 -12 -12 -11 -11 -11 -9 -9 -9 -10 -11 -11 -11 -11
-17 -17 -16 -17 -17 -17 -17 -16 -16 -16 -15 -14 -14 -14 -14 -14 -14 -14 -14 -14 -14 -13 -13 -13 -12 -12 -13 -13 -13 -13 -13 -13 -12 -12 -11 -11 -11 -9 -9 -10 -10 -11 -12 -12 -11
-18 -18 -17 -16 -17 -17 -17 -18 -16 -16 -16 -15 -14 -14 -15 -14 -14 -14 -14 -14 -13 -13 -13 -13 -13 -13 -13 -13 -13 -13 -13 -13 -13 -12 -11 -11 -10 -9 -10 -10 -10 -11 -12 -12 -12
-19 -18 -18 -18 -17 -17 -18 -19 -17 -16 -16 -16 -16 -16 -16 -15 -15 -15 -14 -14 -14 -14 -14 -14 -13 -13 -13 -13 -14 -13 -13 -13 -13 -13 -12 -11 -10 -10 -10 -10 -10 -11 -12 -12 -12
-20 -19 -18 -19 -19 -19 -19 -18 -17 -16 -16 -17 -16 -16 -16 -16 -16 -15 -15 -14 -14 -14 -15 -15 -14 -13 -13 -13 -13 -13 -13 -13 -13 -13 -12 -11 -10 -10 -10 -10 -10 -11 -11 -12 -12
-21 -21 -20 -21 -20 -20 -20 -18 -16 -16 -16 -16 -17 -17 -16 -17 -16 -16 -16 -15 -15 -15 -16 -16 -15 -13 -13 -13 -13 -14 -14 -13 -14 -14 -13 -12 -10 -10 -10 -11 -11 -11 -11 -12 -12
-21 -21 -21 -21 -21 -20 -19 -17 -17 -16 -17 -17 -16 -17 -17 -16 -17 -17 -16 -15 -16 -16 -16 -16 -16 -15 -14 -14 -14 -14 -13 -13 -13 -13 -14 -13 -10 -10 -11 -11 -11 -11 -12 -12 -12
-22 -21 -21 -22 -22 -21 -19 -19 -19 -18 -18 -18 -18 -17 -17 -16 -17 -16 -16 -16 -16 -17 -17 -16 -16 -16 -15 -15 -13 -13 -14 -15 -15 -15 -14 -14 -10 -10 -11 -12 -12 -12 -13 -13 -12
-22 -22 -22 -21 -22 -21 -21 -20 -20 -19 -19 -19 -18 -18 -18 -17 -17 -16 -16 -16 -16 -16 -17 -17 -17 -16 -16 -16 -16 -15 -15 -16 -16 -16 -12 -14 -10 -11 -11 -12 -12 -12 -13 -13 -13
-22 -22 -22 -22 -22 -22 -21 -21 -21 -20 -20 -20 -19 -19 -18 -18 -18 -17 -15 -16 -16 -16 -17 -18 -18 -17 -16 -17 -17 -16 -16 -16 -16 -14 -15 -12 -13 -10 -12 -12 -12 -13 -14 -14 -14
-23 -23 -22 -22 -22 -22 -22 -21 -21 -21 -21 -20 -21 -19 -19 -19 -18 -17 -17 -16 -17 -16 -17 -19 -19 -19 -18 -17 -17 -17 -16 -16 -15 -14 -15 -13 -13 -11 -13 -13 -13 -13 -14 -13 -13
-25 -24 -24 -23 -23 -23 -22 -22 -21 -21 -22 -21 -21 -21 -21 -20 -19 -19 -19 -18 -18 -18 -19 -19 -19 -19 -18 -17 -18 -17 -16 -15 -15 -15 -15 -15 -12 -13 -13 -14 -14 -14 -14 -13 -13